Time,TemperatureF,DewpointF,PressureIn,WindDirection,WindDirectionDegrees,WindSpeedMPH,WindSpeedGustMPH,Humidity,HourlyPrecipIn,Conditions,Clouds,dailyrainin,SoftwareType,DateUTC
2013-04-18 00:00:00,75.6,41.1,25.72,SSW,192,0.0,0.0,29,0.00,,,0.00,VWS V14.00,2013-04-18 05:00:00,
2013-04-18 00:01:00,75.6,42.0,25.72,South,175,0.0,0.0,30,0.00,,,0.00,VWS V14.00,2013-04-18 05:01:00,
2013-04-18 00:03:00,75.4,41.8,25.72,SSW,196,0.0,0.0,30,0.00,,,0.00,VWS V14.00,2013-04-18 05:03:00,
2013-04-18 00:05:00,75.4,42.7,25.72,SSE,166,0.0,0.0,31,0.00,,,0.00,VWS V14.00,2013-04-18 05:05:00,
2013-04-18 00:07:00,75.4,42.7,25.72,South,173,0.0,0.0,31,0.00,,,0.00,VWS V14.00,2013-04-18 05:07:00,
2013-04-18 00:08:00,75.2,42.5,25.72,South,185,0.0,0.0,31,0.00,,,0.00,VWS V14.00,2013-04-18 05:08:00,
2013-04-18 00:09:00,75.2,42.5,25.72,South,185,0.0,0.0,31,0.00,,,0.00,VWS V14.00,2013-04-18 05:09:00,
2013-04-18 00:10:00,75.2,43.3,25.72,South,180,0.0,0.0,32,0.00,,,0.00,VWS V14.00,2013-04-18 05:10:00,
2013-04-18 00:13:00,75.2,43.3,25.72,South,174,0.0,0.0,32,0.00,,,0.00,VWS V14.00,2013-04-18 05:13:00,
2013-04-18 00:14:00,75.2,43.3,25.72,South,179,0.0,0.0,32,0.00,,,0.00,VWS V14.00,2013-04-18 05:14:00,
2013-04-18 00:15:00,75.2,43.3,25.72,South,179,0.0,0.0,32,0.00,,,0.00,VWS V14.00,2013-04-18 05:15:00,
2013-04-18 00:17:00,75.2,43.3,25.72,SSW,207,0.0,0.0,32,0.00,,,0.00,VWS V14.00,2013-04-18 05:17:00,
2013-04-18 00:20:00,75.2,44.2,25.72,SE,143,0.0,0.0,33,0.00,,,0.00,VWS V14.00,2013-04-18 05:20:00,
2013-04-18 00:22:00,75.2,44.2,25.72,South,172,0.0,0.0,33,0.00,,,0.00,VWS V14.00,2013-04-18 05:22:00,
2013-04-18 00:25:00,75.2,43.3,25.72,SSW,197,0.0,0.0,32,0.00,,,0.00,VWS V14.00,2013-04-18 05:25:00,
2013-04-18 00:27:00,75.2,43.3,25.72,SSE,153,0.0,0.0,32,0.00,,,0.00,VWS V14.00,2013-04-18 05:27:00,
2013-04-18 00:29:00,75.4,43.5,25.72,SW,214,0.0,0.0,32,0.00,,,0.00,VWS V14.00,2013-04-18 05:29:00,
2013-04-18 00:32:00,75.6,42.8,25.72,South,183,0.0,0.0,31,0.00,,,0.00,VWS V14.00,2013-04-18 05:32:00,
2013-04-18 00:33:00,75.6,42.8,25.72,South,176,0.0,0.0,31,0.00,,,0.00,VWS V14.00,2013-04-18 05:33:00,
2013-04-18 00:34:00,75.6,42.8,25.72,South,186,0.0,0.0,31,0.00,,,0.00,VWS V14.00,2013-04-18 05:34:00,
2013-04-18 00:35:00,75.6,42.8,25.72,SW,222,0.0,0.0,31,0.00,,,0.00,VWS V14.00,2013-04-18 05:35:00,
2013-04-18 00:38:00,75.6,42.0,25.72,South,169,0.0,0.0,30,0.00,,,0.00,VWS V14.00,2013-04-18 05:38:00,
2013-04-18 00:39:00,75.6,42.0,25.72,South,169,0.0,0.0,30,0.00,,,0.00,VWS V14.00,2013-04-18 05:39:00,
2013-04-18 00:43:00,75.7,41.3,25.72,SSE,158,0.0,0.0,29,0.00,,,0.00,VWS V14.00,2013-04-18 05:43:00,
2013-04-18 00:44:00,75.7,41.3,25.72,SSW,201,0.0,0.0,29,0.00,,,0.00,VWS V14.00,2013-04-18 05:44:00,
2013-04-18 00:46:00,75.7,41.3,25.72,South,185,0.0,0.0,29,0.00,,,0.00,VWS V14.00,2013-04-18 05:46:00,
2013-04-18 00:48:00,75.7,40.3,25.72,South,178,0.0,0.0,28,0.00,,,0.00,VWS V14.00,2013-04-18 05:48:00,
2013-04-18 00:49:00,75.9,40.5,25.72,SSE,162,0.0,0.0,28,0.00,,,0.00,VWS V14.00,2013-04-18 05:49:00,
2013-04-18 00:51:00,75.7,40.3,25.72,South,176,0.0,0.0,28,0.00,,,0.00,VWS V14.00,2013-04-18 05:51:00,
2013-04-18 00:54:00,75.9,40.5,25.72,SSE,158,0.0,0.0,28,0.00,,,0.00,VWS V14.00,2013-04-18 05:54:00,
2013-04-18 00:55:00,75.9,40.5,25.72,South,189,0.0,0.0,28,0.00,,,0.00,VWS V14.00,2013-04-18 05:55:00,
2013-04-18 00:56:00,75.9,40.5,25.72,South,187,0.0,0.0,28,0.00,,,0.00,VWS V14.00,2013-04-18 05:56:00,
2013-04-18 00:57:00,75.9,39.6,25.72,SSE,168,0.0,0.0,27,0.00,,,0.00,VWS V14.00,2013-04-18 05:57:00,
2013-04-18 00:59:00,75.9,39.6,25.72,SSE,165,0.0,0.0,27,0.00,,,0.00,VWS V14.00,2013-04-18 05:59:00,
2013-04-18 01:00:00,75.9,39.6,25.72,SSE,152,0.0,0.0,27,0.00,,,0.00,VWS V14.00,2013-04-18 06:00:00,
2013-04-18 01:01:00,75.7,39.4,25.72,South,170,0.0,0.0,27,0.00,,,0.00,VWS V14.00,2013-04-18 06:01:00,
2013-04-18 01:03:00,75.7,39.4,25.72,South,183,0.0,0.0,27,0.00,,,0.00,VWS V14.00,2013-04-18 06:03:00,
2013-04-18 01:04:00,75.7,39.4,25.72,South,187,0.0,0.0,27,0.00,,,0.00,VWS V14.00,2013-04-18 06:04:00,
2013-04-18 01:05:00,75.7,39.4,25.72,South,189,0.0,0.0,27,0.00,,,0.00,VWS V14.00,2013-04-18 06:05:00,
2013-04-18 01:06:00,75.7,39.4,25.72,SSW,203,0.0,0.0,27,0.00,,,0.00,VWS V14.00,2013-04-18 06:06:00,
2013-04-18 01:08:00,75.6,39.3,25.72,SSW,205,0.0,0.0,27,0.00,,,0.00,VWS V14.00,2013-04-18 06:08:00,
2013-04-18 01:09:00,75.6,39.3,25.72,SSW,198,0.0,0.0,27,0.00,,,0.00,VWS V14.00,2013-04-18 06:09:00,
2013-04-18 01:10:00,75.7,38.5,25.72,South,188,0.0,0.0,26,0.00,,,0.00,VWS V14.00,2013-04-18 06:10:00,
2013-04-18 01:12:00,75.7,38.5,25.72,SSE,168,0.0,0.0,26,0.00,,,0.00,VWS V14.00,2013-04-18 06:12:00,
2013-04-18 01:13:00,75.7,38.5,25.72,SSE,155,0.0,0.0,26,0.00,,,0.00,VWS V14.00,2013-04-18 06:13:00,
2013-04-18 01:14:00,75.7,38.5,25.72,SSE,162,0.0,0.0,26,0.00,,,0.00,VWS V14.00,2013-04-18 06:14:00,
2013-04-18 01:16:00,75.9,38.6,25.72,SSW,204,0.0,0.0,26,0.00,,,0.00,VWS V14.00,2013-04-18 06:16:00,
2013-04-18 01:17:00,75.9,38.6,25.72,SSW,194,0.0,0.0,26,0.00,,,0.00,VWS V14.00,2013-04-18 06:17:00,
2013-04-18 01:19:00,75.7,38.5,25.72,SSE,166,0.0,0.0,26,0.00,,,0.00,VWS V14.00,2013-04-18 06:19:00,
2013-04-18 01:21:00,75.9,37.6,25.69,SSW,192,0.0,0.0,25,0.00,,,0.00,VWS V14.00,2013-04-18 06:21:00,
2013-04-18 01:22:00,76.1,37.8,25.69,SW,214,0.0,0.0,25,0.00,,,0.00,VWS V14.00,2013-04-18 06:22:00,
2013-04-18 01:24:00,76.1,37.8,25.69,SSE,168,0.0,0.0,25,0.00,,,0.00,VWS V14.00,2013-04-18 06:24:00,
2013-04-18 01:26:00,76.1,37.8,25.69,SSE,168,0.0,0.0,25,0.00,,,0.00,VWS V14.00,2013-04-18 06:26:00,
2013-04-18 01:27:00,76.1,37.8,25.69,SSW,195,0.0,0.0,25,0.00,,,0.00,VWS V14.00,2013-04-18 06:27:00,
2013-04-18 01:28:00,76.1,37.8,25.69,SSW,198,0.0,0.0,25,0.00,,,0.00,VWS V14.00,2013-04-18 06:28:00,
2013-04-18 01:30:00,76.1,37.8,25.69,South,181,0.0,0.0,25,0.00,,,0.00,VWS V14.00,2013-04-18 06:30:00,
2013-04-18 01:31:00,76.1,37.8,25.69,South,185,0.0,0.0,25,0.00,,,0.00,VWS V14.00,2013-04-18 06:31:00,
2013-04-18 01:32:00,76.1,37.8,25.69,SSW,194,0.0,0.0,25,0.00,,,0.00,VWS V14.00,2013-04-18 06:32:00,
2013-04-18 01:33:00,76.1,37.8,25.69,South,170,0.0,0.0,25,0.00,,,0.00,VWS V14.00,2013-04-18 06:33:00,
2013-04-18 01:35:00,76.1,37.8,25.69,SSE,167,0.0,0.0,25,0.00,,,0.00,VWS V14.00,2013-04-18 06:35:00,
2013-04-18 01:37:00,76.1,37.8,25.69,South,177,0.0,0.0,25,0.00,,,0.00,VWS V14.00,2013-04-18 06:37:00,
2013-04-18 01:39:00,76.1,37.8,25.69,South,177,0.0,0.0,25,0.00,,,0.00,VWS V14.00,2013-04-18 06:39:00,
2013-04-18 01:40:00,76.1,37.8,25.69,SSW,194,0.0,0.0,25,0.00,,,0.00,VWS V14.00,2013-04-18 06:40:00,
2013-04-18 01:42:00,76.1,37.8,25.69,South,184,0.0,0.0,25,0.00,,,0.00,VWS V14.00,2013-04-18 06:42:00,
2013-04-18 01:43:00,76.1,37.8,25.69,South,184,0.0,0.0,25,0.00,,,0.00,VWS V14.00,2013-04-18 06:43:00,
2013-04-18 01:44:00,76.1,37.8,25.69,SSE,165,0.0,0.0,25,0.00,,,0.00,VWS V14.00,2013-04-18 06:44:00,
2013-04-18 01:46:00,76.3,37.9,25.69,South,179,0.0,0.0,25,0.00,,,0.00,VWS V14.00,2013-04-18 06:46:00,
2013-04-18 01:49:00,76.3,37.9,25.69,SSW,202,0.0,0.0,25,0.00,,,0.00,VWS V14.00,2013-04-18 06:49:00,
2013-04-18 01:50:00,76.3,37.9,25.69,SSW,199,0.0,0.0,25,0.00,,,0.00,VWS V14.00,2013-04-18 06:50:00,
2013-04-18 01:53:00,76.1,37.8,25.69,South,183,0.0,0.0,25,0.00,,,0.00,VWS V14.00,2013-04-18 06:53:00,
2013-04-18 01:54:00,76.1,37.8,25.69,SSW,198,0.0,0.0,25,0.00,,,0.00,VWS V14.00,2013-04-18 06:54:00,
2013-04-18 01:55:00,76.1,37.8,25.69,SSW,198,0.0,0.0,25,0.00,,,0.00,VWS V14.00,2013-04-18 06:55:00,
2013-04-18 01:59:00,76.3,36.9,25.69,South,182,0.0,0.0,24,0.00,,,0.00,VWS V14.00,2013-04-18 06:59:00,
2013-04-18 02:00:00,76.3,36.9,25.69,South,182,0.0,0.0,24,0.00,,,0.00,VWS V14.00,2013-04-18 07:00:00,
2013-04-18 02:01:00,76.3,36.9,25.69,South,188,0.0,0.0,24,0.00,,,0.00,VWS V14.00,2013-04-18 07:01:00,
2013-04-18 02:05:00,76.3,36.9,25.69,SSW,194,0.0,0.0,24,0.00,,,0.00,VWS V14.00,2013-04-18 07:05:00,
2013-04-18 02:06:00,76.5,36.0,25.69,South,179,0.0,0.0,23,0.00,,,0.00,VWS V14.00,2013-04-18 07:06:00,
2013-04-18 02:07:00,76.5,36.0,25.69,SW,223,0.0,0.0,23,0.00,,,0.00,VWS V14.00,2013-04-18 07:07:00,
2013-04-18 02:10:00,76.5,36.0,25.69,SSE,158,0.0,0.0,23,0.00,,,0.00,VWS V14.00,2013-04-18 07:10:00,
2013-04-18 02:11:00,76.5,36.0,25.69,South,178,0.0,0.0,23,0.00,,,0.00,VWS V14.00,2013-04-18 07:11:00,
2013-04-18 02:12:00,76.5,36.0,25.69,South,189,0.0,0.0,23,0.00,,,0.00,VWS V14.00,2013-04-18 07:12:00,
2013-04-18 02:15:00,76.5,36.0,25.69,South,185,0.0,0.0,23,0.00,,,0.00,VWS V14.00,2013-04-18 07:15:00,
2013-04-18 02:17:00,76.5,36.0,25.69,South,178,0.0,0.0,23,0.00,,,0.00,VWS V14.00,2013-04-18 07:17:00,
2013-04-18 02:18:00,76.5,36.0,25.69,South,189,0.0,0.0,23,0.00,,,0.00,VWS V14.00,2013-04-18 07:18:00,
2013-04-18 02:19:00,76.5,36.0,25.66,SSW,192,0.0,0.0,23,0.00,,,0.00,VWS V14.00,2013-04-18 07:19:00,
2013-04-18 02:20:00,76.5,36.0,25.66,SSW,192,0.0,0.0,23,0.00,,,0.00,VWS V14.00,2013-04-18 07:20:00,
2013-04-18 02:23:00,76.5,36.0,25.66,SSE,162,0.0,0.0,23,0.00,,,0.00,VWS V14.00,2013-04-18 07:23:00,
2013-04-18 02:24:00,76.5,36.0,25.66,SSE,165,0.0,0.0,23,0.00,,,0.00,VWS V14.00,2013-04-18 07:24:00,
2013-04-18 02:25:00,76.5,36.0,25.66,South,185,0.0,0.0,23,0.00,,,0.00,VWS V14.00,2013-04-18 07:25:00,
2013-04-18 02:26:00,76.5,36.0,25.66,South,170,0.0,0.0,23,0.00,,,0.00,VWS V14.00,2013-04-18 07:26:00,
2013-04-18 02:29:00,76.5,36.0,25.66,SSW,208,0.0,0.0,23,0.00,,,0.00,VWS V14.00,2013-04-18 07:29:00,
2013-04-18 02:32:00,76.5,36.0,25.66,South,182,0.0,0.0,23,0.00,,,0.00,VWS V14.00,2013-04-18 07:32:00,
2013-04-18 02:33:00,76.5,36.0,25.66,South,174,0.0,0.0,23,0.00,,,0.00,VWS V14.00,2013-04-18 07:33:00,
2013-04-18 02:34:00,76.5,36.0,25.66,South,174,0.0,0.0,23,0.00,,,0.00,VWS V14.00,2013-04-18 07:34:00,
2013-04-18 02:35:00,76.5,36.0,25.66,SSW,202,0.0,0.0,23,0.00,,,0.00,VWS V14.00,2013-04-18 07:35:00,
2013-04-18 02:37:00,76.5,36.0,25.66,South,172,0.0,0.0,23,0.00,,,0.00,VWS V14.00,2013-04-18 07:37:00,
2013-04-18 02:39:00,76.5,36.0,25.66,South,189,0.0,0.0,23,0.00,,,0.00,VWS V14.00,2013-04-18 07:39:00,
2013-04-18 02:40:00,76.3,35.8,25.66,SSE,167,0.0,0.0,23,0.00,,,0.00,VWS V14.00,2013-04-18 07:40:00,
2013-04-18 02:44:00,76.3,35.8,25.66,SSW,196,0.0,0.0,23,0.00,,,0.00,VWS V14.00,2013-04-18 07:44:00,
2013-04-18 02:45:00,76.3,35.8,25.66,South,174,0.0,0.0,23,0.00,,,0.00,VWS V14.00,2013-04-18 07:45:00,
2013-04-18 02:49:00,76.1,36.7,25.66,SSW,205,0.0,0.0,24,0.00,,,0.00,VWS V14.00,2013-04-18 07:49:00,
2013-04-18 02:50:00,76.1,36.7,25.66,South,169,0.0,0.0,24,0.00,,,0.00,VWS V14.00,2013-04-18 07:50:00,
2013-04-18 02:51:00,76.1,36.7,25.66,South,169,0.0,0.0,24,0.00,,,0.00,VWS V14.00,2013-04-18 07:51:00,
2013-04-18 02:52:00,76.1,36.7,25.66,South,189,0.0,0.0,24,0.00,,,0.00,VWS V14.00,2013-04-18 07:52:00,
2013-04-18 02:55:00,76.1,35.7,25.66,South,185,0.0,0.0,23,0.00,,,0.00,VWS V14.00,2013-04-18 07:55:00,
2013-04-18 02:57:00,76.1,34.5,25.66,SSW,212,0.0,0.0,22,0.00,,,0.00,VWS V14.00,2013-04-18 07:57:00,
2013-04-18 02:58:00,76.1,34.5,25.66,South,179,0.0,0.0,22,0.00,,,0.00,VWS V14.00,2013-04-18 07:58:00,
2013-04-18 03:00:00,76.1,34.5,25.66,South,179,0.0,0.0,22,0.00,,,0.00,VWS V14.00,2013-04-18 08:00:00,
2013-04-18 03:01:00,76.1,34.5,25.66,SSW,193,0.0,0.0,22,0.00,,,0.00,VWS V14.00,2013-04-18 08:01:00,
2013-04-18 03:02:00,76.1,34.5,25.66,South,177,0.0,0.0,22,0.00,,,0.00,VWS V14.00,2013-04-18 08:02:00,
2013-04-18 03:03:00,76.1,34.5,25.66,SW,220,0.0,0.0,22,0.00,,,0.00,VWS V14.00,2013-04-18 08:03:00,
2013-04-18 03:05:00,76.1,34.5,25.63,South,191,0.0,0.0,22,0.00,,,0.00,VWS V14.00,2013-04-18 08:05:00,
2013-04-18 03:06:00,76.1,34.5,25.63,South,172,0.0,0.0,22,0.00,,,0.00,VWS V14.00,2013-04-18 08:06:00,
2013-04-18 03:08:00,75.9,34.4,25.63,SSE,148,0.0,0.0,22,0.00,,,0.00,VWS V14.00,2013-04-18 08:08:00,
2013-04-18 03:09:00,76.1,34.5,25.63,SSE,154,0.0,0.0,22,0.00,,,0.00,VWS V14.00,2013-04-18 08:09:00,
2013-04-18 03:10:00,76.1,34.5,25.63,SSE,167,0.0,0.0,22,0.00,,,0.00,VWS V14.00,2013-04-18 08:10:00,
2013-04-18 03:12:00,76.1,34.5,25.63,South,191,0.0,0.0,22,0.00,,,0.00,VWS V14.00,2013-04-18 08:12:00,
2013-04-18 03:13:00,76.1,34.5,25.63,SSW,195,0.0,0.0,22,0.00,,,0.00,VWS V14.00,2013-04-18 08:13:00,
2013-04-18 03:17:00,76.1,33.4,25.63,SSW,200,0.0,0.0,21,0.00,,,0.00,VWS V14.00,2013-04-18 08:17:00,
2013-04-18 03:18:00,76.1,33.4,25.63,SSE,159,0.0,0.0,21,0.00,,,0.00,VWS V14.00,2013-04-18 08:18:00,
2013-04-18 03:20:00,76.1,33.4,25.66,South,184,0.0,0.0,21,0.00,,,0.00,VWS V14.00,2013-04-18 08:20:00,
2013-04-18 03:22:00,76.1,33.4,25.66,SSW,194,0.0,0.0,21,0.00,,,0.00,VWS V14.00,2013-04-18 08:22:00,
2013-04-18 03:23:00,76.1,33.4,25.66,SSE,162,0.0,0.0,21,0.00,,,0.00,VWS V14.00,2013-04-18 08:23:00,
2013-04-18 03:25:00,76.1,33.4,25.66,SSE,162,0.0,0.0,21,0.00,,,0.00,VWS V14.00,2013-04-18 08:25:00,
2013-04-18 03:26:00,76.1,33.4,25.66,SSW,193,0.0,0.0,21,0.00,,,0.00,VWS V14.00,2013-04-18 08:26:00,
2013-04-18 03:27:00,76.1,33.4,25.66,SSW,206,0.0,0.0,21,0.00,,,0.00,VWS V14.00,2013-04-18 08:27:00,
2013-04-18 03:28:00,76.1,33.4,25.66,South,171,0.0,0.0,21,0.00,,,0.00,VWS V14.00,2013-04-18 08:28:00,
2013-04-18 03:29:00,76.1,33.4,25.66,South,175,0.0,0.0,21,0.00,,,0.00,VWS V14.00,2013-04-18 08:29:00,
2013-04-18 03:30:00,76.1,33.4,25.66,SSW,201,0.0,0.0,21,0.00,,,0.00,VWS V14.00,2013-04-18 08:30:00,
2013-04-18 03:31:00,76.1,33.4,25.66,South,190,0.0,0.0,21,0.00,,,0.00,VWS V14.00,2013-04-18 08:31:00,
2013-04-18 03:33:00,76.1,33.4,25.66,SSW,197,0.0,0.0,21,0.00,,,0.00,VWS V14.00,2013-04-18 08:33:00,
2013-04-18 03:34:00,76.1,33.4,25.66,SSW,195,0.0,0.0,21,0.00,,,0.00,VWS V14.00,2013-04-18 08:34:00,
2013-04-18 03:35:00,76.1,33.4,25.66,SSW,193,0.0,0.0,21,0.00,,,0.00,VWS V14.00,2013-04-18 08:35:00,
2013-04-18 03:38:00,76.1,32.2,25.66,South,169,0.0,0.0,20,0.00,,,0.00,VWS V14.00,2013-04-18 08:38:00,
2013-04-18 03:39:00,76.1,32.2,25.66,SSE,156,0.0,0.0,20,0.00,,,0.00,VWS V14.00,2013-04-18 08:39:00,
2013-04-18 03:40:00,76.1,32.2,25.66,SSE,164,0.0,0.0,20,0.00,,,0.00,VWS V14.00,2013-04-18 08:40:00,
2013-04-18 03:41:00,76.1,32.2,25.66,South,184,0.0,0.0,20,0.00,,,0.00,VWS V14.00,2013-04-18 08:41:00,
2013-04-18 03:45:00,76.1,32.2,25.66,SSW,201,0.0,0.0,20,0.00,,,0.00,VWS V14.00,2013-04-18 08:45:00,
2013-04-18 03:48:00,76.1,32.2,25.66,South,178,0.0,0.0,20,0.00,,,0.00,VWS V14.00,2013-04-18 08:48:00,
2013-04-18 03:50:00,76.1,32.2,25.66,SSW,198,0.0,0.0,20,0.00,,,0.00,VWS V14.00,2013-04-18 08:50:00,
2013-04-18 03:51:00,76.1,32.2,25.66,SSW,197,0.0,0.0,20,0.00,,,0.00,VWS V14.00,2013-04-18 08:51:00,
2013-04-18 03:53:00,75.9,32.0,25.66,South,184,0.0,0.0,20,0.00,,,0.00,VWS V14.00,2013-04-18 08:53:00,
2013-04-18 03:56:00,75.9,32.0,25.66,SSW,201,0.0,0.0,20,0.00,,,0.00,VWS V14.00,2013-04-18 08:56:00,
2013-04-18 03:57:00,75.9,32.0,25.66,South,170,0.0,0.0,20,0.00,,,0.00,VWS V14.00,2013-04-18 08:57:00,
2013-04-18 03:58:00,75.9,32.0,25.66,South,169,0.0,0.0,20,0.00,,,0.00,VWS V14.00,2013-04-18 08:58:00,
2013-04-18 04:01:00,75.9,32.0,25.66,SSE,165,0.0,0.0,20,0.00,,,0.00,VWS V14.00,2013-04-18 09:01:00,
2013-04-18 04:02:00,75.9,33.2,25.66,South,179,0.0,0.0,21,0.00,,,0.00,VWS V14.00,2013-04-18 09:02:00,
2013-04-18 04:03:00,75.9,32.0,25.66,South,182,0.0,0.0,20,0.00,,,0.00,VWS V14.00,2013-04-18 09:03:00,
2013-04-18 04:05:00,75.9,32.0,25.66,South,184,0.0,0.0,20,0.00,,,0.00,VWS V14.00,2013-04-18 09:05:00,
2013-04-18 04:07:00,75.9,32.0,25.66,SSW,200,0.0,0.0,20,0.00,,,0.00,VWS V14.00,2013-04-18 09:07:00,
2013-04-18 04:08:00,75.9,32.0,25.66,South,189,0.0,0.0,20,0.00,,,0.00,VWS V14.00,2013-04-18 09:08:00,
2013-04-18 04:09:00,75.9,32.0,25.66,South,184,0.0,0.0,20,0.00,,,0.00,VWS V14.00,2013-04-18 09:09:00,
2013-04-18 04:11:00,75.9,32.0,25.66,South,170,0.0,0.0,20,0.00,,,0.00,VWS V14.00,2013-04-18 09:11:00,
2013-04-18 04:12:00,76.1,32.2,25.66,South,181,0.0,0.0,20,0.00,,,0.00,VWS V14.00,2013-04-18 09:12:00,
2013-04-18 04:13:00,76.1,32.2,25.66,WSW,238,0.0,0.0,20,0.00,,,0.00,VWS V14.00,2013-04-18 09:13:00,
2013-04-18 04:15:00,76.1,30.9,25.66,SW,217,0.0,0.0,19,0.00,,,0.00,VWS V14.00,2013-04-18 09:15:00,
2013-04-18 04:17:00,76.1,30.9,25.66,South,190,0.0,0.0,19,0.00,,,0.00,VWS V14.00,2013-04-18 09:17:00,
2013-04-18 04:18:00,76.1,30.9,25.66,South,169,0.0,0.0,19,0.00,,,0.00,VWS V14.00,2013-04-18 09:18:00,
2013-04-18 04:19:00,76.1,30.9,25.66,South,177,0.0,0.0,19,0.00,,,0.00,VWS V14.00,2013-04-18 09:19:00,
2013-04-18 04:20:00,76.1,30.9,25.66,SSE,152,0.0,0.0,19,0.00,,,0.00,VWS V14.00,2013-04-18 09:20:00,
2013-04-18 04:22:00,76.1,30.9,25.66,South,173,0.0,0.0,19,0.00,,,0.00,VWS V14.00,2013-04-18 09:22:00,
2013-04-18 04:24:00,76.1,30.9,25.66,South,171,0.0,0.0,19,0.00,,,0.00,VWS V14.00,2013-04-18 09:24:00,
2013-04-18 04:26:00,76.1,30.9,25.66,South,178,0.0,0.0,19,0.00,,,0.00,VWS V14.00,2013-04-18 09:26:00,
2013-04-18 04:29:00,76.1,30.9,25.66,South,173,0.0,0.0,19,0.00,,,0.00,VWS V14.00,2013-04-18 09:29:00,
2013-04-18 04:30:00,76.1,30.9,25.66,SSW,203,0.0,0.0,19,0.00,,,0.00,VWS V14.00,2013-04-18 09:30:00,
2013-04-18 04:31:00,76.1,30.9,25.66,South,180,0.0,0.0,19,0.00,,,0.00,VWS V14.00,2013-04-18 09:31:00,
2013-04-18 04:34:00,75.9,32.0,25.66,South,177,0.0,0.0,20,0.00,,,0.00,VWS V14.00,2013-04-18 09:34:00,
2013-04-18 04:35:00,75.9,32.0,25.63,SSE,167,0.0,0.0,20,0.00,,,0.00,VWS V14.00,2013-04-18 09:35:00,
2013-04-18 04:36:00,75.9,32.0,25.63,SE,134,0.0,0.0,20,0.00,,,0.00,VWS V14.00,2013-04-18 09:36:00,
2013-04-18 04:37:00,76.1,30.9,25.63,SSE,166,0.0,0.0,19,0.00,,,0.00,VWS V14.00,2013-04-18 09:37:00,
2013-04-18 04:39:00,76.1,30.9,25.63,SSW,199,0.0,0.0,19,0.00,,,0.00,VWS V14.00,2013-04-18 09:39:00,
2013-04-18 04:40:00,75.9,30.7,25.63,South,184,0.0,0.0,19,0.00,,,0.00,VWS V14.00,2013-04-18 09:40:00,
2013-04-18 04:42:00,75.9,32.0,25.63,South,186,0.0,0.0,20,0.00,,,0.00,VWS V14.00,2013-04-18 09:42:00,
2013-04-18 04:43:00,75.9,32.0,25.63,South,189,0.0,0.0,20,0.00,,,0.00,VWS V14.00,2013-04-18 09:43:00,
2013-04-18 04:44:00,75.9,32.0,25.63,South,174,0.0,0.0,20,0.00,,,0.00,VWS V14.00,2013-04-18 09:44:00,
2013-04-18 04:45:00,75.9,32.0,25.63,South,174,0.0,0.0,20,0.00,,,0.00,VWS V14.00,2013-04-18 09:45:00,
2013-04-18 04:48:00,75.9,32.0,25.63,South,182,0.0,0.0,20,0.00,,,0.00,VWS V14.00,2013-04-18 09:48:00,
2013-04-18 04:50:00,75.9,32.0,25.63,South,175,0.0,0.0,20,0.00,,,0.00,VWS V14.00,2013-04-18 09:50:00,
2013-04-18 04:53:00,75.7,31.9,25.63,South,175,0.0,0.0,20,0.00,,,0.00,VWS V14.00,2013-04-18 09:53:00,
2013-04-18 04:55:00,75.7,31.9,25.63,South,178,0.0,0.0,20,0.00,,,0.00,VWS V14.00,2013-04-18 09:55:00,
2013-04-18 04:58:00,75.7,31.9,25.63,South,169,0.0,0.0,20,0.00,,,0.00,VWS V14.00,2013-04-18 09:58:00,
2013-04-18 04:59:00,75.7,31.9,25.63,South,169,0.0,0.0,20,0.00,,,0.00,VWS V14.00,2013-04-18 09:59:00,
2013-04-18 05:00:00,75.7,31.9,25.63,South,187,0.0,0.0,20,0.00,,,0.00,VWS V14.00,2013-04-18 10:00:00,
2013-04-18 05:03:00,75.7,31.9,25.63,SSW,196,0.0,0.0,20,0.00,,,0.00,VWS V14.00,2013-04-18 10:03:00,
2013-04-18 05:05:00,75.7,31.9,25.63,SSW,193,0.0,0.0,20,0.00,,,0.00,VWS V14.00,2013-04-18 10:05:00,
2013-04-18 05:06:00,75.7,31.9,25.63,SSW,194,0.0,0.0,20,0.00,,,0.00,VWS V14.00,2013-04-18 10:06:00,
2013-04-18 05:07:00,75.7,31.9,25.63,South,170,0.0,0.0,20,0.00,,,0.00,VWS V14.00,2013-04-18 10:07:00,
2013-04-18 05:08:00,75.7,33.1,25.63,South,180,0.0,0.0,21,0.00,,,0.00,VWS V14.00,2013-04-18 10:08:00,
2013-04-18 05:10:00,75.7,33.1,25.63,SSW,197,0.0,0.0,21,0.00,,,0.00,VWS V14.00,2013-04-18 10:10:00,
2013-04-18 05:12:00,75.7,33.1,25.63,SSW,199,0.0,0.0,21,0.00,,,0.00,VWS V14.00,2013-04-18 10:12:00,
2013-04-18 05:14:00,75.7,33.1,25.63,South,170,0.0,0.0,21,0.00,,,0.00,VWS V14.00,2013-04-18 10:14:00,
2013-04-18 05:15:00,75.6,32.9,25.63,South,185,0.0,0.0,21,0.00,,,0.00,VWS V14.00,2013-04-18 10:15:00,
2013-04-18 05:16:00,75.6,32.9,25.63,SSW,202,0.0,0.0,21,0.00,,,0.00,VWS V14.00,2013-04-18 10:16:00,
2013-04-18 05:17:00,75.6,32.9,25.63,SSW,209,0.0,0.0,21,0.00,,,0.00,VWS V14.00,2013-04-18 10:17:00,
2013-04-18 05:19:00,75.7,33.1,25.63,SSW,202,0.0,0.0,21,0.00,,,0.00,VWS V14.00,2013-04-18 10:19:00,
2013-04-18 05:20:00,75.7,33.1,25.63,South,169,0.0,0.0,21,0.00,,,0.00,VWS V14.00,2013-04-18 10:20:00,
2013-04-18 05:22:00,75.7,31.9,25.63,South,179,0.0,0.0,20,0.00,,,0.00,VWS V14.00,2013-04-18 10:22:00,
2013-04-18 05:24:00,75.7,33.1,25.63,SSW,195,0.0,0.0,21,0.00,,,0.00,VWS V14.00,2013-04-18 10:24:00,
2013-04-18 05:25:00,75.7,33.1,25.63,South,188,0.0,0.0,21,0.00,,,0.00,VWS V14.00,2013-04-18 10:25:00,
2013-04-18 05:27:00,75.7,33.1,25.63,SSE,162,0.0,0.0,21,0.00,,,0.00,VWS V14.00,2013-04-18 10:27:00,
2013-04-18 05:28:00,75.7,33.1,25.63,South,177,0.0,0.0,21,0.00,,,0.00,VWS V14.00,2013-04-18 10:28:00,
2013-04-18 05:30:00,75.7,33.1,25.63,SSE,163,0.0,0.0,21,0.00,,,0.00,VWS V14.00,2013-04-18 10:30:00,
2013-04-18 05:32:00,75.7,33.1,25.63,SSW,199,0.0,0.0,21,0.00,,,0.00,VWS V14.00,2013-04-18 10:32:00,
2013-04-18 05:33:00,75.7,33.1,25.63,SSE,158,0.0,0.0,21,0.00,,,0.00,VWS V14.00,2013-04-18 10:33:00,
2013-04-18 05:36:00,75.6,32.9,25.66,South,177,0.0,0.0,21,0.00,,,0.00,VWS V14.00,2013-04-18 10:36:00,
2013-04-18 05:37:00,75.6,32.9,25.66,South,177,0.0,0.0,21,0.00,,,0.00,VWS V14.00,2013-04-18 10:37:00,
2013-04-18 05:38:00,75.6,32.9,25.66,WNW,296,0.0,0.0,21,0.00,,,0.00,VWS V14.00,2013-04-18 10:38:00,
2013-04-18 05:39:00,75.6,32.9,25.66,SSW,207,0.0,0.0,21,0.00,,,0.00,VWS V14.00,2013-04-18 10:39:00,
2013-04-18 05:42:00,75.6,32.9,25.66,WNW,298,0.0,0.0,21,0.00,,,0.00,VWS V14.00,2013-04-18 10:42:00,
2013-04-18 05:43:00,75.6,32.9,25.66,WNW,302,0.0,0.0,21,0.00,,,0.00,VWS V14.00,2013-04-18 10:43:00,
2013-04-18 05:44:00,75.6,32.9,25.66,WNW,292,0.0,0.0,21,0.00,,,0.00,VWS V14.00,2013-04-18 10:44:00,
2013-04-18 05:48:00,75.6,32.9,25.66,WNW,290,0.0,0.0,21,0.00,,,0.00,VWS V14.00,2013-04-18 10:48:00,
2013-04-18 05:49:00,75.6,32.9,25.72,WSW,256,0.0,0.0,21,0.00,,,0.00,VWS V14.00,2013-04-18 10:49:00,
2013-04-18 05:50:00,75.6,32.9,25.72,NNW,341,0.0,0.0,21,0.00,,,0.00,VWS V14.00,2013-04-18 10:50:00,
2013-04-18 05:53:00,75.0,30.0,25.72,SW,227,0.0,0.0,19,0.00,,,0.00,VWS V14.00,2013-04-18 10:53:00,
2013-04-18 05:54:00,74.7,28.4,25.72,NW,314,0.0,0.0,18,0.00,,,0.00,VWS V14.00,2013-04-18 10:54:00,
2013-04-18 05:55:00,72.9,25.5,25.72,North,357,0.0,0.0,17,0.00,,,0.00,VWS V14.00,2013-04-18 10:55:00,
2013-04-18 05:56:00,72.9,25.5,25.72,North,10,0.0,0.0,17,0.00,,,0.00,VWS V14.00,2013-04-18 10:56:00,
2013-04-18 05:59:00,71.2,24.2,25.72,NW,306,0.0,0.0,17,0.00,,,0.00,VWS V14.00,2013-04-18 10:59:00,
2013-04-18 06:00:00,71.2,24.2,25.72,NW,306,0.0,0.0,17,0.00,,,0.00,VWS V14.00,2013-04-18 11:00:00,
2013-04-18 06:01:00,68.9,23.7,25.72,North,353,0.0,0.0,18,0.00,,,0.00,VWS V14.00,2013-04-18 11:01:00,
2013-04-18 06:03:00,68.5,23.4,25.72,North,0,0.0,0.0,18,0.00,,,0.00,VWS V14.00,2013-04-18 11:03:00,
2013-04-18 06:05:00,66.4,26.4,25.78,North,1,0.0,0.0,22,0.00,,,0.00,VWS V14.00,2013-04-18 11:05:00,
2013-04-18 06:08:00,64.8,28.1,25.78,NNE,19,0.0,0.0,25,0.00,,,0.00,VWS V14.00,2013-04-18 11:08:00,
2013-04-18 06:12:00,63.0,31.9,25.78,NE,53,0.0,11.9,31,0.00,,,0.00,VWS V14.00,2013-04-18 11:12:00,
2013-04-18 06:13:00,62.8,31.7,25.78,NNE,14,4.9,4.9,31,0.00,,,0.00,VWS V14.00,2013-04-18 11:13:00,
2013-04-18 06:17:00,61.7,33.8,25.78,NNE,23,12.3,15.0,35,0.00,,,0.00,VWS V14.00,2013-04-18 11:17:00,
2013-04-18 06:18:00,61.7,33.8,25.78,NNE,23,12.3,15.0,35,0.00,,,0.00,VWS V14.00,2013-04-18 11:18:00,
2013-04-18 06:19:00,61.5,34.3,25.78,NW,316,5.4,15.0,36,0.00,,,0.00,VWS V14.00,2013-04-18 11:19:00,
2013-04-18 06:23:00,61.2,39.1,25.78,NNW,331,4.0,15.0,44,0.00,,,0.00,VWS V14.00,2013-04-18 11:23:00,
2013-04-18 06:24:00,61.2,39.1,25.78,NE,44,5.8,15.0,44,0.00,,,0.00,VWS V14.00,2013-04-18 11:24:00,
2013-04-18 06:25:00,61.2,40.8,25.78,ENE,58,7.6,15.0,47,0.00,,,0.00,VWS V14.00,2013-04-18 11:25:00,
2013-04-18 06:30:00,60.8,44.5,25.78,North,353,5.4,8.1,55,0.00,,,0.00,VWS V14.00,2013-04-18 11:30:00,
2013-04-18 06:31:00,60.8,46.0,25.78,North,2,4.9,8.3,58,0.00,,,0.00,VWS V14.00,2013-04-18 11:31:00,
2013-04-18 06:32:00,60.8,46.0,25.78,North,2,4.9,8.3,58,0.00,,,0.00,VWS V14.00,2013-04-18 11:32:00,
2013-04-18 06:35:00,60.3,45.4,25.81,NNW,344,8.1,8.3,58,0.00,,,0.00,VWS V14.00,2013-04-18 11:35:00,
2013-04-18 06:37:00,60.3,45.9,25.81,NNE,28,11.4,11.9,59,0.00,,,0.00,VWS V14.00,2013-04-18 11:37:00,
2013-04-18 06:38:00,59.9,45.1,25.81,North,353,18.3,18.3,58,0.00,,,0.00,VWS V14.00,2013-04-18 11:38:00,
2013-04-18 06:39:00,59.5,42.4,25.81,North,6,8.3,18.3,53,0.00,,,0.00,VWS V14.00,2013-04-18 11:39:00,
2013-04-18 06:41:00,59.5,41.9,25.81,NNE,14,5.8,18.3,52,0.00,,,0.00,VWS V14.00,2013-04-18 11:41:00,
2013-04-18 06:43:00,59.5,40.9,25.81,North,353,5.4,18.3,50,0.00,,,0.00,VWS V14.00,2013-04-18 11:43:00,
2013-04-18 06:44:00,59.4,42.7,25.81,North,357,5.4,9.2,54,0.00,,,0.00,VWS V14.00,2013-04-18 11:44:00,
2013-04-18 06:46:00,59.4,42.2,25.81,North,357,4.5,10.5,53,0.00,,,0.00,VWS V14.00,2013-04-18 11:46:00,
2013-04-18 06:48:00,59.4,43.2,25.81,NW,318,10.1,10.5,55,0.00,,,0.00,VWS V14.00,2013-04-18 11:48:00,
2013-04-18 06:49:00,59.2,44.0,25.81,NE,34,8.3,10.5,57,0.00,,,0.00,VWS V14.00,2013-04-18 11:49:00,
2013-04-18 06:50:00,59.4,44.6,25.81,NNW,348,10.5,10.5,58,0.00,,,0.00,VWS V14.00,2013-04-18 11:50:00,
2013-04-18 06:52:00,58.6,42.5,25.81,NNE,16,6.3,13.2,55,0.00,,,0.00,VWS V14.00,2013-04-18 11:52:00,
2013-04-18 06:55:00,58.1,41.6,25.81,North,0,8.7,13.2,54,0.00,,,0.00,VWS V14.00,2013-04-18 11:55:00,
2013-04-18 06:57:00,57.9,40.4,25.81,NNE,17,8.1,13.2,52,0.00,,,0.00,VWS V14.00,2013-04-18 11:57:00,
2013-04-18 06:59:00,57.9,39.4,25.81,North,0,9.2,13.2,50,0.00,,,0.00,VWS V14.00,2013-04-18 11:59:00,
2013-04-18 07:00:00,57.9,39.4,25.81,North,0,9.2,13.2,50,0.00,,,0.00,VWS V14.00,2013-04-18 12:00:00,
2013-04-18 07:01:00,57.9,39.4,25.81,North,0,9.2,13.2,50,0.00,,,0.00,VWS V14.00,2013-04-18 12:01:00,
2013-04-18 07:03:00,57.6,39.1,25.81,North,5,8.3,13.2,50,0.00,,,0.00,VWS V14.00,2013-04-18 12:03:00,
2013-04-18 07:05:00,57.6,39.6,25.81,North,8,7.6,13.2,51,0.00,,,0.00,VWS V14.00,2013-04-18 12:05:00,
2013-04-18 07:06:00,57.6,41.1,25.81,North,11,13.2,13.2,54,0.00,,,0.00,VWS V14.00,2013-04-18 12:06:00,
2013-04-18 07:07:00,57.6,41.1,25.81,North,11,13.2,13.2,54,0.00,,,0.00,VWS V14.00,2013-04-18 12:07:00,
2013-04-18 07:08:00,57.4,40.4,25.81,NE,37,12.3,14.5,53,0.00,,,0.00,VWS V14.00,2013-04-18 12:08:00,
2013-04-18 07:12:00,57.2,41.2,25.81,NNW,335,8.3,14.5,55,0.00,,,0.00,VWS V14.00,2013-04-18 12:12:00,
2013-04-18 07:13:00,57.2,41.7,25.81,NW,323,8.3,8.7,56,0.00,,,0.00,VWS V14.00,2013-04-18 12:13:00,
2013-04-18 07:14:00,57.2,42.1,25.81,NNW,331,8.7,10.1,57,0.00,,,0.00,VWS V14.00,2013-04-18 12:14:00,
2013-04-18 07:18:00,56.7,41.6,25.81,NNW,334,5.8,12.8,57,0.00,,,0.00,VWS V14.00,2013-04-18 12:18:00,
2013-04-18 07:19:00,56.7,42.5,25.81,North,6,5.8,12.8,59,0.00,,,0.00,VWS V14.00,2013-04-18 12:19:00,
2013-04-18 07:20:00,56.5,42.3,25.81,North,353,4.0,12.8,59,0.00,,,0.00,VWS V14.00,2013-04-18 12:20:00,
2013-04-18 07:21:00,56.5,42.8,25.81,NNW,340,9.6,12.8,60,0.00,,,0.00,VWS V14.00,2013-04-18 12:21:00,
2013-04-18 07:24:00,56.3,43.5,25.81,North,3,8.3,12.8,62,0.00,,,0.00,VWS V14.00,2013-04-18 12:24:00,
2013-04-18 07:25:00,56.1,43.3,25.81,North,349,4.9,12.8,62,0.00,,,0.00,VWS V14.00,2013-04-18 12:25:00,
2013-04-18 07:26:00,56.1,43.7,25.81,NNW,333,11.4,12.8,63,0.00,,,0.00,VWS V14.00,2013-04-18 12:26:00,
2013-04-18 07:30:00,55.0,41.0,25.81,NW,318,5.8,12.8,59,0.00,,,0.00,VWS V14.00,2013-04-18 12:30:00,
2013-04-18 07:31:00,54.9,40.8,25.81,North,0,8.7,12.8,59,0.00,,,0.00,VWS V14.00,2013-04-18 12:31:00,
2013-04-18 07:32:00,54.7,40.7,25.81,NNW,336,11.0,12.8,59,0.00,,,0.00,VWS V14.00,2013-04-18 12:32:00,
2013-04-18 07:35:00,54.1,40.1,25.84,North,0,6.3,15.9,59,0.00,,,0.00,VWS V14.00,2013-04-18 12:35:00,
2013-04-18 07:36:00,54.0,39.5,25.84,NW,308,5.8,15.9,58,0.00,,,0.00,VWS V14.00,2013-04-18 12:36:00,
2013-04-18 07:37:00,53.8,39.4,25.84,NW,324,11.0,15.9,58,0.00,,,0.00,VWS V14.00,2013-04-18 12:37:00,
2013-04-18 07:38:00,53.8,38.9,25.84,North,357,10.1,15.9,57,0.00,,,0.00,VWS V14.00,2013-04-18 12:38:00,
2013-04-18 07:41:00,53.6,39.6,25.84,NNW,343,6.3,15.9,59,0.00,,,0.00,VWS V14.00,2013-04-18 12:41:00,
2013-04-18 07:42:00,53.4,39.5,25.84,North,0,9.6,15.9,59,0.00,,,0.00,VWS V14.00,2013-04-18 12:42:00,
2013-04-18 07:43:00,53.2,39.3,25.84,NW,311,9.6,9.6,59,0.00,,,0.00,VWS V14.00,2013-04-18 12:43:00,
2013-04-18 07:44:00,53.2,39.3,25.84,North,353,6.3,10.5,59,0.00,,,0.00,VWS V14.00,2013-04-18 12:44:00,
2013-04-18 07:47:00,53.1,38.7,25.84,North,357,10.1,15.4,58,0.00,,,0.00,VWS V14.00,2013-04-18 12:47:00,
2013-04-18 07:49:00,52.9,38.5,25.84,North,3,7.6,15.4,58,0.00,,,0.00,VWS V14.00,2013-04-18 12:49:00,
2013-04-18 07:52:00,52.7,38.3,25.84,North,7,11.4,15.4,58,0.00,,,0.00,VWS V14.00,2013-04-18 12:52:00,
2013-04-18 07:53:00,52.5,38.2,25.84,North,357,10.5,15.4,58,0.00,,,0.00,VWS V14.00,2013-04-18 12:53:00,
2013-04-18 07:54:00,52.5,38.6,25.84,North,353,13.2,15.4,59,0.00,,,0.00,VWS V14.00,2013-04-18 12:54:00,
2013-04-18 07:56:00,52.3,38.5,25.84,NW,326,9.2,15.4,59,0.00,,,0.00,VWS V14.00,2013-04-18 12:56:00,
2013-04-18 07:58:00,52.5,39.0,25.84,NW,317,8.3,15.4,60,0.00,,,0.00,VWS V14.00,2013-04-18 12:58:00,
2013-04-18 07:59:00,52.5,39.0,25.84,NW,317,8.3,15.4,60,0.00,,,0.00,VWS V14.00,2013-04-18 12:59:00,
2013-04-18 08:02:00,52.2,38.3,25.84,NNW,333,12.3,16.3,59,0.00,,,0.00,VWS V14.00,2013-04-18 13:02:00,
2013-04-18 08:03:00,51.8,36.2,25.84,North,1,10.5,16.3,55,0.00,,,0.00,VWS V14.00,2013-04-18 13:03:00,
2013-04-18 08:04:00,51.8,36.2,25.84,NNE,12,10.5,16.3,55,0.00,,,0.00,VWS V14.00,2013-04-18 13:04:00,
2013-04-18 08:07:00,52.0,36.3,25.84,North,0,4.0,16.3,55,0.00,,,0.00,VWS V14.00,2013-04-18 13:07:00,
2013-04-18 08:08:00,52.0,35.9,25.84,NW,314,5.8,16.3,54,0.00,,,0.00,VWS V14.00,2013-04-18 13:08:00,
2013-04-18 08:09:00,52.0,35.9,25.84,NW,309,6.3,16.3,54,0.00,,,0.00,VWS V14.00,2013-04-18 13:09:00,
2013-04-18 08:10:00,52.0,35.9,25.84,NW,309,6.3,16.3,54,0.00,,,0.00,VWS V14.00,2013-04-18 13:10:00,
2013-04-18 08:11:00,52.0,35.9,25.84,NW,309,6.3,16.3,54,0.00,,,0.00,VWS V14.00,2013-04-18 13:11:00,
2013-04-18 08:12:00,52.0,34.9,25.84,NW,314,6.3,16.3,52,0.00,,,0.00,VWS V14.00,2013-04-18 13:12:00,
2013-04-18 08:15:00,52.0,27.8,25.84,North,349,11.0,11.0,39,0.00,,,0.00,VWS V14.00,2013-04-18 13:15:00,
2013-04-18 08:16:00,52.0,25.2,25.84,North,357,8.1,11.0,35,0.00,,,0.00,VWS V14.00,2013-04-18 13:16:00,
2013-04-18 08:17:00,52.2,24.7,25.84,NNW,329,6.3,11.0,34,0.00,,,0.00,VWS V14.00,2013-04-18 13:17:00,
2013-04-18 08:20:00,52.0,23.1,25.84,NW,318,12.3,15.0,32,0.00,,,0.00,VWS V14.00,2013-04-18 13:20:00,
2013-04-18 08:22:00,52.2,22.5,25.84,North,353,11.0,15.0,31,0.00,,,0.00,VWS V14.00,2013-04-18 13:22:00,
2013-04-18 08:23:00,52.2,22.5,25.84,North,353,11.0,15.0,31,0.00,,,0.00,VWS V14.00,2013-04-18 13:23:00,
2013-04-18 08:25:00,52.3,21.0,25.84,NNW,345,8.3,15.4,29,0.00,,,0.00,VWS V14.00,2013-04-18 13:25:00,
2013-04-18 08:26:00,52.3,21.0,25.84,NNW,330,8.1,15.4,29,0.00,,,0.00,VWS V14.00,2013-04-18 13:26:00,
2013-04-18 08:28:00,52.5,20.4,25.84,NNW,345,6.3,15.4,28,0.00,,,0.00,VWS V14.00,2013-04-18 13:28:00,
2013-04-18 08:31:00,52.9,19.8,25.84,North,0,8.1,15.4,27,0.00,,,0.00,VWS V14.00,2013-04-18 13:31:00,
2013-04-18 08:32:00,52.9,19.8,25.84,North,353,12.8,15.4,27,0.00,,,0.00,VWS V14.00,2013-04-18 13:32:00,
2013-04-18 08:33:00,52.9,19.8,25.84,NW,326,8.3,15.4,27,0.00,,,0.00,VWS V14.00,2013-04-18 13:33:00,
2013-04-18 08:34:00,52.9,19.8,25.84,NW,326,8.3,15.4,27,0.00,,,0.00,VWS V14.00,2013-04-18 13:34:00,
2013-04-18 08:37:00,53.1,20.0,25.84,NNE,14,7.6,15.4,27,0.00,,,0.00,VWS V14.00,2013-04-18 13:37:00,
2013-04-18 08:38:00,52.9,20.7,25.84,North,353,7.6,15.4,28,0.00,,,0.00,VWS V14.00,2013-04-18 13:38:00,
2013-04-18 08:39:00,52.9,20.7,25.84,North,0,9.2,15.4,28,0.00,,,0.00,VWS V14.00,2013-04-18 13:39:00,
2013-04-18 08:40:00,52.9,19.8,25.84,North,349,12.8,15.4,27,0.00,,,0.00,VWS V14.00,2013-04-18 13:40:00,
2013-04-18 08:43:00,52.9,19.8,25.84,NW,312,10.5,17.4,27,0.00,,,0.00,VWS V14.00,2013-04-18 13:43:00,
2013-04-18 08:44:00,52.9,19.8,25.84,NW,319,7.2,10.5,27,0.00,,,0.00,VWS V14.00,2013-04-18 13:44:00,
2013-04-18 08:45:00,52.9,20.7,25.84,North,1,8.3,10.5,28,0.00,,,0.00,VWS V14.00,2013-04-18 13:45:00,
2013-04-18 08:48:00,52.7,20.5,25.84,NW,315,8.1,10.5,28,0.00,,,0.00,VWS V14.00,2013-04-18 13:48:00,
2013-04-18 08:49:00,52.5,20.4,25.87,NNW,332,12.8,12.8,28,0.00,,,0.00,VWS V14.00,2013-04-18 13:49:00,
2013-04-18 08:50:00,52.3,19.4,25.87,North,350,12.3,15.4,27,0.00,,,0.00,VWS V14.00,2013-04-18 13:50:00,
2013-04-18 08:51:00,52.2,19.2,25.87,NNW,335,15.9,15.9,27,0.00,,,0.00,VWS V14.00,2013-04-18 13:51:00,
2013-04-18 08:53:00,51.6,18.8,25.87,NW,306,12.8,15.9,27,0.00,,,0.00,VWS V14.00,2013-04-18 13:53:00,
2013-04-18 08:54:00,51.6,18.8,25.87,WNW,302,7.6,15.9,27,0.00,,,0.00,VWS V14.00,2013-04-18 13:54:00,
2013-04-18 08:55:00,50.7,20.4,25.87,NW,323,12.3,15.9,30,0.00,,,0.00,VWS V14.00,2013-04-18 13:55:00,
2013-04-18 08:57:00,50.2,21.5,25.87,NNW,337,15.4,15.9,32,0.00,,,0.00,VWS V14.00,2013-04-18 13:57:00,
2013-04-18 08:59:00,49.6,21.0,25.87,NNW,340,17.4,17.4,32,0.00,,,0.00,VWS V14.00,2013-04-18 13:59:00,
2013-04-18 09:00:00,49.6,21.0,25.87,NNW,340,17.4,17.4,32,0.00,,,0.00,VWS V14.00,2013-04-18 14:00:00,
2013-04-18 09:01:00,49.5,23.6,25.87,North,357,7.6,17.4,36,0.00,,,0.00,VWS V14.00,2013-04-18 14:01:00,
2013-04-18 09:02:00,49.5,23.6,25.87,NNE,30,12.8,17.4,36,0.00,,,0.00,VWS V14.00,2013-04-18 14:02:00,
2013-04-18 09:05:00,48.7,20.9,25.84,NNW,344,15.4,18.8,33,0.00,,,0.00,VWS V14.00,2013-04-18 14:05:00,
2013-04-18 09:06:00,48.7,20.9,25.84,NNW,344,15.4,18.8,33,0.00,,,0.00,VWS V14.00,2013-04-18 14:06:00,
2013-04-18 09:07:00,48.7,21.6,25.84,North,353,8.3,18.8,34,0.00,,,0.00,VWS V14.00,2013-04-18 14:07:00,
2013-04-18 09:09:00,48.4,21.3,25.84,WNW,297,10.5,18.8,34,0.00,,,0.00,VWS V14.00,2013-04-18 14:09:00,
2013-04-18 09:11:00,48.4,21.3,25.84,NW,307,7.6,18.8,34,0.00,,,0.00,VWS V14.00,2013-04-18 14:11:00,
2013-04-18 09:13:00,48.4,22.0,25.84,North,1,7.6,18.8,35,0.00,,,0.00,VWS V14.00,2013-04-18 14:13:00,
2013-04-18 09:14:00,48.4,22.7,25.84,NNW,348,8.7,11.0,36,0.00,,,0.00,VWS V14.00,2013-04-18 14:14:00,
2013-04-18 09:15:00,48.4,22.7,25.84,NNW,341,11.9,15.4,36,0.00,,,0.00,VWS V14.00,2013-04-18 14:15:00,
2013-04-18 09:16:00,48.2,21.9,25.84,North,350,10.1,15.4,35,0.00,,,0.00,VWS V14.00,2013-04-18 14:16:00,
2013-04-18 09:17:00,48.4,22.0,25.84,NW,321,5.4,15.4,35,0.00,,,0.00,VWS V14.00,2013-04-18 14:17:00,
2013-04-18 09:18:00,48.4,22.0,25.84,NNW,339,12.8,15.4,35,0.00,,,0.00,VWS V14.00,2013-04-18 14:18:00,
2013-04-18 09:19:00,48.4,22.0,25.84,NW,323,8.7,15.4,35,0.00,,,0.00,VWS V14.00,2013-04-18 14:19:00,
2013-04-18 09:22:00,48.4,21.3,25.84,WNW,299,12.3,16.3,34,0.00,,,0.00,VWS V14.00,2013-04-18 14:22:00,
2013-04-18 09:24:00,48.4,21.3,25.84,NNW,343,10.1,16.3,34,0.00,,,0.00,VWS V14.00,2013-04-18 14:24:00,
2013-04-18 09:25:00,48.6,21.5,25.84,NW,326,9.2,16.3,34,0.00,,,0.00,VWS V14.00,2013-04-18 14:25:00,
2013-04-18 09:27:00,48.6,20.8,25.84,NW,326,8.1,16.3,33,0.00,,,0.00,VWS V14.00,2013-04-18 14:27:00,
2013-04-18 09:28:00,48.7,20.9,25.84,NE,39,9.6,16.3,33,0.00,,,0.00,VWS V14.00,2013-04-18 14:28:00,
2013-04-18 09:29:00,48.7,20.2,25.84,NNW,338,14.1,14.1,32,0.00,,,0.00,VWS V14.00,2013-04-18 14:29:00,
2013-04-18 09:31:00,48.7,19.5,25.84,North,353,10.1,19.7,31,0.00,,,0.00,VWS V14.00,2013-04-18 14:31:00,
2013-04-18 09:33:00,49.8,19.6,25.84,North,353,8.3,19.7,30,0.00,,,0.00,VWS V14.00,2013-04-18 14:33:00,
2013-04-18 09:34:00,49.8,19.6,25.84,North,353,8.3,19.7,30,0.00,,,0.00,VWS V14.00,2013-04-18 14:34:00,
2013-04-18 09:35:00,50.4,18.5,25.84,NW,317,7.6,19.7,28,0.00,,,0.00,VWS V14.00,2013-04-18 14:35:00,
2013-04-18 09:37:00,51.4,17.7,25.84,North,357,13.2,19.7,26,0.00,,,0.00,VWS V14.00,2013-04-18 14:37:00,
2013-04-18 09:39:00,51.8,15.2,25.84,NNW,345,12.8,19.7,23,0.00,,,0.00,VWS V14.00,2013-04-18 14:39:00,
2013-04-18 09:40:00,52.0,14.3,25.84,North,7,11.0,19.7,22,0.00,,,0.00,VWS V14.00,2013-04-18 14:40:00,
2013-04-18 09:42:00,51.8,14.2,25.84,North,7,9.2,19.7,22,0.00,,,0.00,VWS V14.00,2013-04-18 14:42:00,
2013-04-18 09:45:00,52.2,15.5,25.84,North,353,11.0,11.0,23,0.00,,,0.00,VWS V14.00,2013-04-18 14:45:00,
2013-04-18 09:46:00,52.3,15.7,25.84,NNE,31,5.4,11.0,23,0.00,,,0.00,VWS V14.00,2013-04-18 14:46:00,
2013-04-18 09:48:00,52.5,15.8,25.84,NNE,30,10.1,11.0,23,0.00,,,0.00,VWS V14.00,2013-04-18 14:48:00,
2013-04-18 09:50:00,52.7,16.0,25.87,NW,312,4.0,11.0,23,0.00,,,0.00,VWS V14.00,2013-04-18 14:50:00,
2013-04-18 09:51:00,53.1,16.3,25.87,North,357,8.3,11.0,23,0.00,,,0.00,VWS V14.00,2013-04-18 14:51:00,
2013-04-18 09:52:00,53.1,16.3,25.87,North,353,8.7,11.0,23,0.00,,,0.00,VWS V14.00,2013-04-18 14:52:00,
2013-04-18 09:53:00,53.1,15.2,25.87,North,357,10.5,12.8,22,0.00,,,0.00,VWS V14.00,2013-04-18 14:53:00,
2013-04-18 09:55:00,52.9,15.1,25.87,NNW,339,10.1,12.8,22,0.00,,,0.00,VWS V14.00,2013-04-18 14:55:00,
2013-04-18 09:58:00,52.3,14.6,25.87,NNW,327,7.6,12.8,22,0.00,,,0.00,VWS V14.00,2013-04-18 14:58:00,
2013-04-18 10:00:00,52.3,14.6,25.87,NW,316,8.7,12.8,22,0.00,,,0.00,VWS V14.00,2013-04-18 15:00:00,
2013-04-18 10:03:00,51.8,14.2,25.87,NW,311,10.5,14.1,22,0.00,,,0.00,VWS V14.00,2013-04-18 15:03:00,
2013-04-18 10:04:00,51.8,14.2,25.87,NNW,344,13.6,14.1,22,0.00,,,0.00,VWS V14.00,2013-04-18 15:04:00,
2013-04-18 10:06:00,52.0,14.3,25.84,NNW,333,8.3,15.4,22,0.00,,,0.00,VWS V14.00,2013-04-18 15:06:00,
2013-04-18 10:07:00,52.0,14.3,25.84,NNW,333,8.3,15.4,22,0.00,,,0.00,VWS V14.00,2013-04-18 15:07:00,
2013-04-18 10:09:00,52.3,14.6,25.84,NW,322,8.3,15.4,22,0.00,,,0.00,VWS V14.00,2013-04-18 15:09:00,
2013-04-18 10:10:00,52.5,14.8,25.84,NNE,12,11.9,15.4,22,0.00,,,0.00,VWS V14.00,2013-04-18 15:10:00,
2013-04-18 10:12:00,52.9,15.1,25.84,NNW,339,6.3,15.4,22,0.00,,,0.00,VWS V14.00,2013-04-18 15:12:00,
2013-04-18 10:13:00,52.9,15.1,25.84,NNW,329,7.6,15.4,22,0.00,,,0.00,VWS V14.00,2013-04-18 15:13:00,
2013-04-18 10:14:00,52.9,15.1,25.84,North,357,8.1,8.1,22,0.00,,,0.00,VWS V14.00,2013-04-18 15:14:00,
2013-04-18 10:17:00,52.5,14.8,25.84,North,357,15.0,17.4,22,0.00,,,0.00,VWS V14.00,2013-04-18 15:17:00,
2013-04-18 10:18:00,52.7,14.9,25.84,NW,315,5.8,17.4,22,0.00,,,0.00,VWS V14.00,2013-04-18 15:18:00,
2013-04-18 10:20:00,52.9,15.1,25.87,NNE,12,8.3,17.4,22,0.00,,,0.00,VWS V14.00,2013-04-18 15:20:00,
2013-04-18 10:23:00,53.4,15.6,25.87,NNW,345,5.8,17.4,22,0.00,,,0.00,VWS V14.00,2013-04-18 15:23:00,
2013-04-18 10:24:00,54.0,14.9,25.87,NW,309,9.6,17.4,21,0.00,,,0.00,VWS V14.00,2013-04-18 15:24:00,
2013-04-18 10:25:00,54.9,15.7,25.87,NW,305,15.0,17.4,21,0.00,,,0.00,VWS V14.00,2013-04-18 15:25:00,
2013-04-18 10:28:00,55.0,15.8,25.87,NNE,17,4.0,17.4,21,0.00,,,0.00,VWS V14.00,2013-04-18 15:28:00,
2013-04-18 10:29:00,55.0,15.8,25.87,NNE,17,4.0,17.4,21,0.00,,,0.00,VWS V14.00,2013-04-18 15:29:00,
2013-04-18 10:30:00,54.7,15.5,25.87,North,8,4.9,15.0,21,0.00,,,0.00,VWS V14.00,2013-04-18 15:30:00,
2013-04-18 10:31:00,55.0,15.8,25.87,North,353,8.7,15.0,21,0.00,,,0.00,VWS V14.00,2013-04-18 15:31:00,
2013-04-18 10:34:00,56.3,15.8,25.84,WNW,302,8.7,15.0,20,0.00,,,0.00,VWS V14.00,2013-04-18 15:34:00,
2013-04-18 10:35:00,55.9,15.5,25.84,NW,324,11.9,15.0,20,0.00,,,0.00,VWS V14.00,2013-04-18 15:35:00,
2013-04-18 10:36:00,55.9,15.5,25.84,NW,322,10.5,15.0,20,0.00,,,0.00,VWS V14.00,2013-04-18 15:36:00,
2013-04-18 10:40:00,54.3,15.2,25.84,NNE,18,8.3,15.4,21,0.00,,,0.00,VWS V14.00,2013-04-18 15:40:00,
2013-04-18 10:42:00,53.8,14.8,25.84,North,1,8.1,15.4,21,0.00,,,0.00,VWS V14.00,2013-04-18 15:42:00,
2013-04-18 10:43:00,53.8,14.8,25.84,North,357,8.7,15.4,21,0.00,,,0.00,VWS V14.00,2013-04-18 15:43:00,
2013-04-18 10:46:00,53.8,14.8,25.84,NNW,334,5.8,15.0,21,0.00,,,0.00,VWS V14.00,2013-04-18 15:46:00,
2013-04-18 10:47:00,53.8,14.8,25.84,North,1,10.5,15.0,21,0.00,,,0.00,VWS V14.00,2013-04-18 15:47:00,
2013-04-18 10:48:00,53.8,14.8,25.84,NNW,337,5.8,15.0,21,0.00,,,0.00,VWS V14.00,2013-04-18 15:48:00,
2013-04-18 10:51:00,54.3,15.2,25.87,NW,319,8.3,15.0,21,0.00,,,0.00,VWS V14.00,2013-04-18 15:51:00,
2013-04-18 10:52:00,54.5,15.4,25.87,WNW,303,10.5,20.1,21,0.00,,,0.00,VWS V14.00,2013-04-18 15:52:00,
2013-04-18 10:53:00,54.7,15.5,25.87,North,353,8.7,20.1,21,0.00,,,0.00,VWS V14.00,2013-04-18 15:53:00,
2013-04-18 10:54:00,54.3,15.2,25.87,NNW,328,11.0,20.1,21,0.00,,,0.00,VWS V14.00,2013-04-18 15:54:00,
2013-04-18 10:57:00,55.0,15.8,25.87,NW,317,12.8,20.1,21,0.00,,,0.00,VWS V14.00,2013-04-18 15:57:00,
2013-04-18 10:58:00,55.9,15.5,25.87,North,5,11.0,20.1,20,0.00,,,0.00,VWS V14.00,2013-04-18 15:58:00,
2013-04-18 11:00:00,56.1,15.6,25.87,NNE,28,15.0,20.1,20,0.00,,,0.00,VWS V14.00,2013-04-18 16:00:00,
2013-04-18 11:01:00,56.3,15.8,25.87,North,353,8.1,20.1,20,0.00,,,0.00,VWS V14.00,2013-04-18 16:01:00,
2013-04-18 11:02:00,56.3,15.8,25.87,NW,320,5.8,20.1,20,0.00,,,0.00,VWS V14.00,2013-04-18 16:02:00,
2013-04-18 11:03:00,56.7,16.1,25.84,NNW,346,11.0,20.1,20,0.00,,,0.00,VWS V14.00,2013-04-18 16:03:00,
2013-04-18 11:04:00,56.7,16.1,25.84,North,5,8.7,20.1,20,0.00,,,0.00,VWS V14.00,2013-04-18 16:04:00,
2013-04-18 11:05:00,56.3,15.8,25.84,NW,311,15.0,20.1,20,0.00,,,0.00,VWS V14.00,2013-04-18 16:05:00,
2013-04-18 11:07:00,56.7,16.1,25.84,NNW,329,11.0,20.1,20,0.00,,,0.00,VWS V14.00,2013-04-18 16:07:00,
2013-04-18 11:10:00,56.5,15.9,25.84,North,350,8.7,20.1,20,0.00,,,0.00,VWS V14.00,2013-04-18 16:10:00,
2013-04-18 11:11:00,56.5,15.9,25.84,North,350,8.7,20.1,20,0.00,,,0.00,VWS V14.00,2013-04-18 16:11:00,
2013-04-18 11:12:00,56.8,16.2,25.84,NNE,20,8.1,20.1,20,0.00,,,0.00,VWS V14.00,2013-04-18 16:12:00,
2013-04-18 11:13:00,57.4,16.7,25.84,NE,39,8.3,8.3,20,0.00,,,0.00,VWS V14.00,2013-04-18 16:13:00,
2013-04-18 11:16:00,56.3,15.8,25.84,NNE,31,8.7,11.9,20,0.00,,,0.00,VWS V14.00,2013-04-18 16:16:00,
2013-04-18 11:17:00,56.7,16.1,25.84,NNW,327,8.1,11.9,20,0.00,,,0.00,VWS V14.00,2013-04-18 16:17:00,
2013-04-18 11:18:00,56.8,16.2,25.84,NW,322,9.2,11.9,20,0.00,,,0.00,VWS V14.00,2013-04-18 16:18:00,
2013-04-18 11:19:00,57.7,17.0,25.87,North,353,4.0,11.9,20,0.00,,,0.00,VWS V14.00,2013-04-18 16:19:00,
2013-04-18 11:21:00,59.4,18.3,25.87,NNW,341,12.3,12.3,20,0.00,,,0.00,VWS V14.00,2013-04-18 16:21:00,
2013-04-18 11:23:00,60.1,18.9,25.87,North,350,17.4,17.4,20,0.00,,,0.00,VWS V14.00,2013-04-18 16:23:00,
2013-04-18 11:24:00,59.5,18.5,25.87,NNE,15,15.0,17.4,20,0.00,,,0.00,VWS V14.00,2013-04-18 16:24:00,
2013-04-18 11:25:00,59.4,18.3,25.87,WNW,301,8.3,17.4,20,0.00,,,0.00,VWS V14.00,2013-04-18 16:25:00,
2013-04-18 11:27:00,59.2,18.2,25.87,North,357,8.7,17.4,20,0.00,,,0.00,VWS V14.00,2013-04-18 16:27:00,
2013-04-18 11:28:00,59.2,18.2,25.87,North,357,11.0,17.4,20,0.00,,,0.00,VWS V14.00,2013-04-18 16:28:00,
2013-04-18 11:30:00,59.2,18.2,25.87,North,10,10.1,12.8,20,0.00,,,0.00,VWS V14.00,2013-04-18 16:30:00,
2013-04-18 11:32:00,59.7,18.6,25.87,NNW,348,13.2,15.0,20,0.00,,,0.00,VWS V14.00,2013-04-18 16:32:00,
2013-04-18 11:34:00,60.1,18.9,25.87,NW,307,6.3,15.0,20,0.00,,,0.00,VWS V14.00,2013-04-18 16:34:00,
2013-04-18 11:35:00,60.4,19.2,25.84,NNW,331,7.6,15.0,20,0.00,,,0.00,VWS V14.00,2013-04-18 16:35:00,
2013-04-18 11:37:00,60.8,18.3,25.84,North,350,12.8,17.4,19,0.00,,,0.00,VWS V14.00,2013-04-18 16:37:00,
2013-04-18 11:39:00,59.9,18.8,25.84,North,353,8.7,17.4,20,0.00,,,0.00,VWS V14.00,2013-04-18 16:39:00,
2013-04-18 11:40:00,58.6,17.7,25.84,North,353,10.5,17.4,20,0.00,,,0.00,VWS V14.00,2013-04-18 16:40:00,
2013-04-18 11:44:00,58.1,17.3,25.84,NNW,327,10.1,12.8,20,0.00,,,0.00,VWS V14.00,2013-04-18 16:44:00,
2013-04-18 11:46:00,59.0,18.0,25.84,NW,325,8.7,12.8,20,0.00,,,0.00,VWS V14.00,2013-04-18 16:46:00,
2013-04-18 11:49:00,59.2,18.2,25.87,North,8,7.6,15.0,20,0.00,,,0.00,VWS V14.00,2013-04-18 16:49:00,
2013-04-18 11:51:00,59.2,18.2,25.87,North,1,8.7,15.0,20,0.00,,,0.00,VWS V14.00,2013-04-18 16:51:00,
2013-04-18 11:52:00,59.0,18.0,25.87,NNW,335,5.4,15.0,20,0.00,,,0.00,VWS V14.00,2013-04-18 16:52:00,
2013-04-18 11:53:00,59.0,18.0,25.87,North,1,8.3,15.9,20,0.00,,,0.00,VWS V14.00,2013-04-18 16:53:00,
2013-04-18 11:54:00,59.0,18.0,25.87,NNW,336,7.2,15.9,20,0.00,,,0.00,VWS V14.00,2013-04-18 16:54:00,
2013-04-18 11:56:00,58.8,17.9,25.87,North,8,7.2,15.9,20,0.00,,,0.00,VWS V14.00,2013-04-18 16:56:00,
2013-04-18 11:57:00,58.8,17.9,25.87,North,8,7.2,15.9,20,0.00,,,0.00,VWS V14.00,2013-04-18 16:57:00,
2013-04-18 12:00:00,59.2,18.2,25.87,NNE,13,8.7,15.9,20,0.00,,,0.00,VWS V14.00,2013-04-18 17:00:00,
2013-04-18 12:01:00,58.5,17.6,25.87,NNW,334,8.1,15.9,20,0.00,,,0.00,VWS V14.00,2013-04-18 17:01:00,
2013-04-18 12:02:00,58.5,17.6,25.87,North,357,8.1,15.9,20,0.00,,,0.00,VWS V14.00,2013-04-18 17:02:00,
2013-04-18 12:03:00,58.5,17.6,25.87,North,357,8.1,15.9,20,0.00,,,0.00,VWS V14.00,2013-04-18 17:03:00,
2013-04-18 12:05:00,57.2,16.5,25.87,North,353,5.8,15.9,20,0.00,,,0.00,VWS V14.00,2013-04-18 17:05:00,
2013-04-18 12:07:00,57.9,17.1,25.87,WNW,299,8.1,15.9,20,0.00,,,0.00,VWS V14.00,2013-04-18 17:07:00,
2013-04-18 12:08:00,57.9,17.1,25.87,NNW,338,9.2,15.9,20,0.00,,,0.00,VWS V14.00,2013-04-18 17:08:00,
2013-04-18 12:09:00,57.7,17.0,25.87,NW,320,15.4,15.9,20,0.00,,,0.00,VWS V14.00,2013-04-18 17:09:00,
2013-04-18 12:10:00,57.7,17.0,25.87,NNW,340,11.0,15.9,20,0.00,,,0.00,VWS V14.00,2013-04-18 17:10:00,
2013-04-18 12:13:00,57.9,17.1,25.87,NW,315,12.3,12.3,20,0.00,,,0.00,VWS V14.00,2013-04-18 17:13:00,
2013-04-18 12:14:00,57.9,17.1,25.87,WNW,298,13.6,15.0,20,0.00,,,0.00,VWS V14.00,2013-04-18 17:14:00,
2013-04-18 12:15:00,57.6,16.8,25.87,NW,308,10.5,15.0,20,0.00,,,0.00,VWS V14.00,2013-04-18 17:15:00,
2013-04-18 12:19:00,58.1,17.3,25.87,NNW,334,6.3,15.9,20,0.00,,,0.00,VWS V14.00,2013-04-18 17:19:00,
2013-04-18 12:20:00,57.7,17.0,25.87,North,357,8.3,15.9,20,0.00,,,0.00,VWS V14.00,2013-04-18 17:20:00,
2013-04-18 12:21:00,57.9,17.1,25.87,NW,311,10.5,15.9,20,0.00,,,0.00,VWS V14.00,2013-04-18 17:21:00,
2013-04-18 12:24:00,58.6,17.7,25.87,NNW,327,10.5,15.9,20,0.00,,,0.00,VWS V14.00,2013-04-18 17:24:00,
2013-04-18 12:27:00,59.0,18.0,25.87,North,357,14.5,15.9,20,0.00,,,0.00,VWS V14.00,2013-04-18 17:27:00,
2013-04-18 12:28:00,58.8,17.9,25.87,NNE,14,8.3,15.9,20,0.00,,,0.00,VWS V14.00,2013-04-18 17:28:00,
2013-04-18 12:30:00,58.1,17.3,25.87,North,357,8.3,14.5,20,0.00,,,0.00,VWS V14.00,2013-04-18 17:30:00,
2013-04-18 12:32:00,59.4,18.3,25.87,NNE,32,8.3,14.5,20,0.00,,,0.00,VWS V14.00,2013-04-18 17:32:00,
2013-04-18 12:33:00,59.2,18.2,25.87,NNW,339,7.2,14.5,20,0.00,,,0.00,VWS V14.00,2013-04-18 17:33:00,
2013-04-18 12:34:00,59.2,18.2,25.87,NNW,343,10.5,14.5,20,0.00,,,0.00,VWS V14.00,2013-04-18 17:34:00,
2013-04-18 12:37:00,61.7,19.0,25.87,NW,311,8.1,14.5,19,0.00,,,0.00,VWS V14.00,2013-04-18 17:37:00,
2013-04-18 12:38:00,63.5,20.5,25.87,NNW,342,6.3,14.5,19,0.00,,,0.00,VWS V14.00,2013-04-18 17:38:00,
2013-04-18 12:39:00,63.5,20.5,25.87,NNW,342,6.3,14.5,19,0.00,,,0.00,VWS V14.00,2013-04-18 17:39:00,
2013-04-18 12:42:00,64.4,20.0,25.87,NNE,25,8.3,15.4,18,0.00,,,0.00,VWS V14.00,2013-04-18 17:42:00,
2013-04-18 12:43:00,63.0,20.1,25.87,North,353,8.3,15.4,19,0.00,,,0.00,VWS V14.00,2013-04-18 17:43:00,
2013-04-18 12:44:00,63.0,20.1,25.87,North,1,10.5,11.0,19,0.00,,,0.00,VWS V14.00,2013-04-18 17:44:00,
2013-04-18 12:47:00,62.1,19.3,25.87,North,357,10.1,16.8,19,0.00,,,0.00,VWS V14.00,2013-04-18 17:47:00,
2013-04-18 12:48:00,62.4,19.6,25.87,North,353,9.2,16.8,19,0.00,,,0.00,VWS V14.00,2013-04-18 17:48:00,
2013-04-18 12:49:00,63.5,20.5,25.87,NW,322,10.1,16.8,19,0.00,,,0.00,VWS V14.00,2013-04-18 17:49:00,
2013-04-18 12:50:00,64.6,20.1,25.87,North,353,8.7,16.8,18,0.00,,,0.00,VWS V14.00,2013-04-18 17:50:00,
2013-04-18 12:52:00,64.8,20.3,25.87,North,5,13.6,16.8,18,0.00,,,0.00,VWS V14.00,2013-04-18 17:52:00,
2013-04-18 12:53:00,64.2,21.1,25.87,NW,326,7.6,16.8,19,0.00,,,0.00,VWS V14.00,2013-04-18 17:53:00,
2013-04-18 12:55:00,64.0,21.0,25.87,NNE,31,13.6,16.8,19,0.00,,,0.00,VWS V14.00,2013-04-18 17:55:00,
2013-04-18 12:56:00,63.5,20.5,25.87,WNW,298,8.3,16.8,19,0.00,,,0.00,VWS V14.00,2013-04-18 17:56:00,
2013-04-18 12:58:00,64.4,20.0,25.87,North,0,9.2,16.8,18,0.00,,,0.00,VWS V14.00,2013-04-18 17:58:00,
2013-04-18 12:59:00,64.4,20.0,25.87,NNE,18,7.6,16.8,18,0.00,,,0.00,VWS V14.00,2013-04-18 17:59:00,
2013-04-18 13:00:00,64.4,20.0,25.87,NNE,18,7.6,16.8,18,0.00,,,0.00,VWS V14.00,2013-04-18 18:00:00,
2013-04-18 13:02:00,62.8,19.9,25.87,NNW,344,13.6,16.8,19,0.00,,,0.00,VWS V14.00,2013-04-18 18:02:00,
2013-04-18 13:03:00,63.0,20.1,25.87,North,1,9.6,16.8,19,0.00,,,0.00,VWS V14.00,2013-04-18 18:03:00,
2013-04-18 13:05:00,62.6,19.8,25.87,NNW,343,10.5,16.8,19,0.00,,,0.00,VWS V14.00,2013-04-18 18:05:00,
2013-04-18 13:06:00,62.2,19.5,25.87,North,357,12.8,16.8,19,0.00,,,0.00,VWS V14.00,2013-04-18 18:06:00,
2013-04-18 13:08:00,62.2,19.5,25.87,NNW,332,13.2,17.9,19,0.00,,,0.00,VWS V14.00,2013-04-18 18:08:00,
2013-04-18 13:10:00,62.1,19.3,25.87,North,11,8.3,17.9,19,0.00,,,0.00,VWS V14.00,2013-04-18 18:10:00,
2013-04-18 13:11:00,62.1,19.3,25.87,NNE,20,6.7,17.9,19,0.00,,,0.00,VWS V14.00,2013-04-18 18:11:00,
2013-04-18 13:13:00,62.2,19.5,25.87,NNE,28,6.3,11.9,19,0.00,,,0.00,VWS V14.00,2013-04-18 18:13:00,
2013-04-18 13:16:00,61.7,19.0,25.87,NE,46,6.3,11.9,19,0.00,,,0.00,VWS V14.00,2013-04-18 18:16:00,
2013-04-18 13:17:00,61.2,18.6,25.87,NNE,21,5.4,11.9,19,0.00,,,0.00,VWS V14.00,2013-04-18 18:17:00,
2013-04-18 13:20:00,61.5,18.9,25.87,North,357,8.3,13.2,19,0.00,,,0.00,VWS V14.00,2013-04-18 18:20:00,
2013-04-18 13:22:00,61.0,18.5,25.87,North,5,8.1,13.2,19,0.00,,,0.00,VWS V14.00,2013-04-18 18:22:00,
2013-04-18 13:23:00,60.6,19.4,25.87,North,357,10.5,13.2,20,0.00,,,0.00,VWS V14.00,2013-04-18 18:23:00,
2013-04-18 13:25:00,62.2,19.5,25.87,NW,322,5.8,13.2,19,0.00,,,0.00,VWS V14.00,2013-04-18 18:25:00,
2013-04-18 13:28:00,62.6,19.8,25.87,NNE,22,10.1,13.2,19,0.00,,,0.00,VWS V14.00,2013-04-18 18:28:00,
2013-04-18 13:29:00,62.6,19.8,25.87,NNE,22,10.1,13.2,19,0.00,,,0.00,VWS V14.00,2013-04-18 18:29:00,
2013-04-18 13:30:00,62.6,19.8,25.87,NE,35,5.8,13.2,19,0.00,,,0.00,VWS V14.00,2013-04-18 18:30:00,
2013-04-18 13:33:00,62.6,19.8,25.87,North,5,8.1,13.2,19,0.00,,,0.00,VWS V14.00,2013-04-18 18:33:00,
2013-04-18 13:34:00,62.6,19.8,25.87,North,5,8.1,13.2,19,0.00,,,0.00,VWS V14.00,2013-04-18 18:34:00,
2013-04-18 13:35:00,61.9,19.2,25.87,NNE,28,6.3,13.2,19,0.00,,,0.00,VWS V14.00,2013-04-18 18:35:00,
2013-04-18 13:36:00,62.6,19.8,25.87,North,357,11.4,14.5,19,0.00,,,0.00,VWS V14.00,2013-04-18 18:36:00,
2013-04-18 13:39:00,64.8,20.3,25.87,NNW,330,8.1,15.4,18,0.00,,,0.00,VWS V14.00,2013-04-18 18:39:00,
2013-04-18 13:40:00,64.4,20.0,25.87,North,357,10.5,15.4,18,0.00,,,0.00,VWS V14.00,2013-04-18 18:40:00,
2013-04-18 13:41:00,64.4,20.0,25.87,North,357,10.5,15.4,18,0.00,,,0.00,VWS V14.00,2013-04-18 18:41:00,
2013-04-18 13:43:00,64.4,20.0,25.87,NNE,31,8.3,15.4,18,0.00,,,0.00,VWS V14.00,2013-04-18 18:43:00,
2013-04-18 13:44:00,63.7,20.7,25.87,NNE,32,11.0,11.0,19,0.00,,,0.00,VWS V14.00,2013-04-18 18:44:00,
2013-04-18 13:46:00,64.2,21.1,25.87,NNE,21,7.6,12.8,19,0.00,,,0.00,VWS V14.00,2013-04-18 18:46:00,
2013-04-18 13:47:00,64.2,21.1,25.87,NNE,21,7.6,12.8,19,0.00,,,0.00,VWS V14.00,2013-04-18 18:47:00,
2013-04-18 13:48:00,64.2,21.1,25.87,ENE,59,8.1,12.8,19,0.00,,,0.00,VWS V14.00,2013-04-18 18:48:00,
2013-04-18 13:50:00,64.9,20.4,25.90,NNW,329,10.1,14.5,18,0.00,,,0.00,VWS V14.00,2013-04-18 18:50:00,
2013-04-18 13:52:00,64.4,20.0,25.90,NNW,343,7.6,14.5,18,0.00,,,0.00,VWS V14.00,2013-04-18 18:52:00,
2013-04-18 13:53:00,64.6,20.1,25.90,NNW,338,8.1,14.5,18,0.00,,,0.00,VWS V14.00,2013-04-18 18:53:00,
2013-04-18 13:55:00,63.7,20.7,25.90,North,350,13.2,19.7,19,0.00,,,0.00,VWS V14.00,2013-04-18 18:55:00,
2013-04-18 13:56:00,63.0,20.1,25.90,WNW,300,11.0,19.7,19,0.00,,,0.00,VWS V14.00,2013-04-18 18:56:00,
2013-04-18 13:57:00,63.0,20.1,25.90,NW,323,11.0,19.7,19,0.00,,,0.00,VWS V14.00,2013-04-18 18:57:00,
2013-04-18 13:58:00,63.0,20.1,25.90,North,353,7.6,19.7,19,0.00,,,0.00,VWS V14.00,2013-04-18 18:58:00,
2013-04-18 14:01:00,63.0,20.1,25.90,West,281,6.3,19.7,19,0.00,,,0.00,VWS V14.00,2013-04-18 19:01:00,
2013-04-18 14:02:00,63.5,20.5,25.90,NNW,327,11.0,19.7,19,0.00,,,0.00,VWS V14.00,2013-04-18 19:02:00,
2013-04-18 14:03:00,63.5,20.5,25.90,North,8,7.6,19.7,19,0.00,,,0.00,VWS V14.00,2013-04-18 19:03:00,
2013-04-18 14:04:00,63.9,20.8,25.90,NW,322,8.7,19.7,19,0.00,,,0.00,VWS V14.00,2013-04-18 19:04:00,
2013-04-18 14:05:00,64.8,20.3,25.90,WNW,292,17.0,19.7,18,0.00,,,0.00,VWS V14.00,2013-04-18 19:05:00,
2013-04-18 14:08:00,64.2,21.1,25.90,NNW,328,7.6,19.7,19,0.00,,,0.00,VWS V14.00,2013-04-18 19:08:00,
2013-04-18 14:09:00,64.8,20.3,25.90,WNW,297,7.6,19.7,18,0.00,,,0.00,VWS V14.00,2013-04-18 19:09:00,
2013-04-18 14:11:00,64.2,21.1,25.90,North,11,5.8,19.7,19,0.00,,,0.00,VWS V14.00,2013-04-18 19:11:00,
2013-04-18 14:13:00,62.1,19.3,25.90,North,0,8.7,10.5,19,0.00,,,0.00,VWS V14.00,2013-04-18 19:13:00,
2013-04-18 14:14:00,62.1,19.3,25.90,North,3,6.3,10.5,19,0.00,,,0.00,VWS V14.00,2013-04-18 19:14:00,
2013-04-18 14:15:00,61.7,19.0,25.90,NNE,26,8.3,11.0,19,0.00,,,0.00,VWS V14.00,2013-04-18 19:15:00,
2013-04-18 14:18:00,62.2,19.5,25.90,NE,44,8.1,11.0,19,0.00,,,0.00,VWS V14.00,2013-04-18 19:18:00,
2013-04-18 14:19:00,60.6,19.4,25.90,NNE,31,14.5,14.5,20,0.00,,,0.00,VWS V14.00,2013-04-18 19:19:00,
2013-04-18 14:20:00,60.8,18.3,25.90,North,357,10.5,14.5,19,0.00,,,0.00,VWS V14.00,2013-04-18 19:20:00,
2013-04-18 14:21:00,61.0,18.5,25.90,North,350,5.4,14.5,19,0.00,,,0.00,VWS V14.00,2013-04-18 19:21:00,
2013-04-18 14:23:00,61.9,19.2,25.90,North,353,5.8,14.5,19,0.00,,,0.00,VWS V14.00,2013-04-18 19:23:00,
2013-04-18 14:24:00,62.2,19.5,25.90,North,353,5.8,14.5,19,0.00,,,0.00,VWS V14.00,2013-04-18 19:24:00,
2013-04-18 14:26:00,63.7,20.7,25.90,NNW,332,10.1,14.5,19,0.00,,,0.00,VWS V14.00,2013-04-18 19:26:00,
2013-04-18 14:28:00,63.5,20.5,25.90,NNE,26,10.1,14.5,19,0.00,,,0.00,VWS V14.00,2013-04-18 19:28:00,
2013-04-18 14:29:00,63.1,20.2,25.90,NNE,14,8.1,14.5,19,0.00,,,0.00,VWS V14.00,2013-04-18 19:29:00,
2013-04-18 14:31:00,62.2,19.5,25.90,North,357,9.6,14.5,19,0.00,,,0.00,VWS V14.00,2013-04-18 19:31:00,
2013-04-18 14:32:00,61.9,19.2,25.90,NNE,15,7.6,14.5,19,0.00,,,0.00,VWS V14.00,2013-04-18 19:32:00,
2013-04-18 14:33:00,61.7,19.0,25.90,North,353,11.0,14.5,19,0.00,,,0.00,VWS V14.00,2013-04-18 19:33:00,
2013-04-18 14:34:00,62.2,19.5,25.90,NW,315,8.7,14.5,19,0.00,,,0.00,VWS V14.00,2013-04-18 19:34:00,
2013-04-18 14:35:00,62.2,19.5,25.90,NW,315,8.7,14.5,19,0.00,,,0.00,VWS V14.00,2013-04-18 19:35:00,
2013-04-18 14:39:00,63.9,20.8,25.90,NE,36,15.0,15.0,19,0.00,,,0.00,VWS V14.00,2013-04-18 19:39:00,
2013-04-18 14:40:00,64.8,20.3,25.90,NW,325,9.6,15.0,18,0.00,,,0.00,VWS V14.00,2013-04-18 19:40:00,
2013-04-18 14:44:00,62.2,19.5,25.90,NNE,30,10.5,10.5,19,0.00,,,0.00,VWS V14.00,2013-04-18 19:44:00,
2013-04-18 14:45:00,61.7,19.0,25.90,NE,43,5.8,10.5,19,0.00,,,0.00,VWS V14.00,2013-04-18 19:45:00,
2013-04-18 14:46:00,61.7,19.0,25.90,NNE,28,5.8,10.5,19,0.00,,,0.00,VWS V14.00,2013-04-18 19:46:00,
2013-04-18 14:47:00,62.4,19.6,25.90,NNW,327,6.3,10.5,19,0.00,,,0.00,VWS V14.00,2013-04-18 19:47:00,
2013-04-18 14:50:00,64.2,21.1,25.90,North,357,10.1,12.3,19,0.00,,,0.00,VWS V14.00,2013-04-18 19:50:00,
2013-04-18 14:51:00,64.0,21.0,25.90,NE,39,10.1,12.3,19,0.00,,,0.00,VWS V14.00,2013-04-18 19:51:00,
2013-04-18 14:53:00,63.3,20.4,25.90,North,9,8.7,12.3,19,0.00,,,0.00,VWS V14.00,2013-04-18 19:53:00,
2013-04-18 14:55:00,63.1,20.2,25.90,WNW,297,12.3,12.3,19,0.00,,,0.00,VWS V14.00,2013-04-18 19:55:00,
2013-04-18 14:56:00,64.4,20.0,25.90,NNE,21,8.7,12.3,18,0.00,,,0.00,VWS V14.00,2013-04-18 19:56:00,
2013-04-18 14:57:00,65.7,21.0,25.90,North,357,6.3,12.3,18,0.00,,,0.00,VWS V14.00,2013-04-18 19:57:00,
2013-04-18 14:59:00,65.5,20.9,25.90,North,357,6.3,12.3,18,0.00,,,0.00,VWS V14.00,2013-04-18 19:59:00,
2013-04-18 15:00:00,65.5,20.9,25.90,North,357,6.3,12.3,18,0.00,,,0.00,VWS V14.00,2013-04-18 20:00:00,
2013-04-18 15:01:00,65.5,20.9,25.90,North,357,6.3,12.3,18,0.00,,,0.00,VWS V14.00,2013-04-18 20:01:00,
2013-04-18 15:03:00,64.8,20.3,25.90,NW,319,8.3,17.0,18,0.00,,,0.00,VWS V14.00,2013-04-18 20:03:00,
2013-04-18 15:05:00,65.5,20.9,25.90,NNW,329,6.3,17.0,18,0.00,,,0.00,VWS V14.00,2013-04-18 20:05:00,
2013-04-18 15:06:00,65.5,20.9,25.90,NNW,346,8.7,17.0,18,0.00,,,0.00,VWS V14.00,2013-04-18 20:06:00,
2013-04-18 15:07:00,66.0,21.3,25.90,NNW,333,10.5,17.0,18,0.00,,,0.00,VWS V14.00,2013-04-18 20:07:00,
2013-04-18 15:09:00,66.6,21.8,25.90,NE,40,7.6,17.0,18,0.00,,,0.00,VWS V14.00,2013-04-18 20:09:00,
2013-04-18 15:11:00,66.6,21.8,25.90,North,11,11.4,17.0,18,0.00,,,0.00,VWS V14.00,2013-04-18 20:11:00,
2013-04-18 15:12:00,66.4,21.6,25.90,NW,318,15.4,17.0,18,0.00,,,0.00,VWS V14.00,2013-04-18 20:12:00,
2013-04-18 15:13:00,66.4,21.6,25.90,NW,318,15.4,17.0,18,0.00,,,0.00,VWS V14.00,2013-04-18 20:13:00,
2013-04-18 15:15:00,65.1,20.6,25.90,NW,322,8.3,15.4,18,0.00,,,0.00,VWS V14.00,2013-04-18 20:15:00,
2013-04-18 15:16:00,64.0,21.0,25.90,North,353,11.0,17.0,19,0.00,,,0.00,VWS V14.00,2013-04-18 20:16:00,
2013-04-18 15:17:00,64.4,20.0,25.90,NNE,13,10.1,17.0,18,0.00,,,0.00,VWS V14.00,2013-04-18 20:17:00,
2013-04-18 15:18:00,64.4,20.0,25.90,NNE,19,5.8,17.0,18,0.00,,,0.00,VWS V14.00,2013-04-18 20:18:00,
2013-04-18 15:19:00,64.8,20.3,25.90,NNE,33,6.3,17.0,18,0.00,,,0.00,VWS V14.00,2013-04-18 20:19:00,
2013-04-18 15:22:00,65.1,20.6,25.90,North,357,8.3,17.0,18,0.00,,,0.00,VWS V14.00,2013-04-18 20:22:00,
2013-04-18 15:23:00,66.0,21.3,25.90,North,4,15.0,17.0,18,0.00,,,0.00,VWS V14.00,2013-04-18 20:23:00,
2013-04-18 15:24:00,65.8,21.2,25.90,NW,318,7.6,17.0,18,0.00,,,0.00,VWS V14.00,2013-04-18 20:24:00,
2013-04-18 15:27:00,66.6,21.8,25.90,NNW,335,10.5,17.0,18,0.00,,,0.00,VWS V14.00,2013-04-18 20:27:00,
2013-04-18 15:28:00,66.9,22.1,25.90,NNW,327,8.3,17.0,18,0.00,,,0.00,VWS V14.00,2013-04-18 20:28:00,
2013-04-18 15:30:00,66.9,22.1,25.90,North,1,10.1,14.5,18,0.00,,,0.00,VWS V14.00,2013-04-18 20:30:00,
2013-04-18 15:33:00,66.4,21.6,25.90,North,0,12.3,14.5,18,0.00,,,0.00,VWS V14.00,2013-04-18 20:33:00,
2013-04-18 15:35:00,66.4,21.6,25.90,NNE,26,8.7,14.5,18,0.00,,,0.00,VWS V14.00,2013-04-18 20:35:00,
2013-04-18 15:36:00,65.5,20.9,25.90,NNE,33,8.1,14.5,18,0.00,,,0.00,VWS V14.00,2013-04-18 20:36:00,
2013-04-18 15:38:00,66.4,21.6,25.90,NNW,336,5.4,14.5,18,0.00,,,0.00,VWS V14.00,2013-04-18 20:38:00,
2013-04-18 15:39:00,66.4,21.6,25.90,NNW,336,5.4,14.5,18,0.00,,,0.00,VWS V14.00,2013-04-18 20:39:00,
2013-04-18 15:42:00,67.1,22.2,25.90,NNW,343,9.2,14.5,18,0.00,,,0.00,VWS V14.00,2013-04-18 20:42:00,
2013-04-18 15:44:00,67.8,22.8,25.90,North,5,10.1,10.1,18,0.00,,,0.00,VWS V14.00,2013-04-18 20:44:00,
2013-04-18 15:45:00,66.6,21.8,25.90,NNW,333,10.1,10.1,18,0.00,,,0.00,VWS V14.00,2013-04-18 20:45:00,
2013-04-18 15:48:00,68.0,23.0,25.90,North,357,9.6,11.4,18,0.00,,,0.00,VWS V14.00,2013-04-18 20:48:00,
2013-04-18 15:49:00,67.5,22.5,25.90,North,2,8.7,12.8,18,0.00,,,0.00,VWS V14.00,2013-04-18 20:49:00,
2013-04-18 15:50:00,67.5,22.5,25.90,North,353,8.3,12.8,18,0.00,,,0.00,VWS V14.00,2013-04-18 20:50:00,
2013-04-18 15:51:00,67.5,22.5,25.90,North,353,8.3,12.8,18,0.00,,,0.00,VWS V14.00,2013-04-18 20:51:00,
2013-04-18 15:53:00,68.5,23.4,25.90,North,0,5.4,12.8,18,0.00,,,0.00,VWS V14.00,2013-04-18 20:53:00,
2013-04-18 15:55:00,66.4,21.6,25.90,NNE,32,15.0,15.0,18,0.00,,,0.00,VWS V14.00,2013-04-18 20:55:00,
2013-04-18 15:56:00,66.2,21.5,25.90,NNW,341,8.3,15.0,18,0.00,,,0.00,VWS V14.00,2013-04-18 20:56:00,
2013-04-18 15:57:00,66.2,21.5,25.90,NE,52,11.0,15.0,18,0.00,,,0.00,VWS V14.00,2013-04-18 20:57:00,
2013-04-18 15:58:00,67.1,22.2,25.90,WNW,296,10.1,15.0,18,0.00,,,0.00,VWS V14.00,2013-04-18 20:58:00,
2013-04-18 15:59:00,67.1,22.2,25.90,WNW,296,10.1,15.0,18,0.00,,,0.00,VWS V14.00,2013-04-18 20:59:00,
2013-04-18 16:01:00,67.5,22.5,25.90,NW,311,8.1,15.0,18,0.00,,,0.00,VWS V14.00,2013-04-18 21:01:00,
2013-04-18 16:03:00,68.2,23.1,25.90,NW,315,5.4,15.0,18,0.00,,,0.00,VWS V14.00,2013-04-18 21:03:00,
2013-04-18 16:04:00,69.8,23.1,25.90,NW,318,8.1,15.0,17,0.00,,,0.00,VWS V14.00,2013-04-18 21:04:00,
2013-04-18 16:07:00,65.8,21.2,25.90,NNE,30,8.7,17.4,18,0.00,,,0.00,VWS V14.00,2013-04-18 21:07:00,
2013-04-18 16:09:00,66.9,22.1,25.90,NW,318,10.1,17.4,18,0.00,,,0.00,VWS V14.00,2013-04-18 21:09:00,
2013-04-18 16:12:00,68.4,23.2,25.90,NNE,12,8.1,17.4,18,0.00,,,0.00,VWS V14.00,2013-04-18 21:12:00,
2013-04-18 16:13:00,68.4,23.2,25.90,NNE,12,8.1,17.4,18,0.00,,,0.00,VWS V14.00,2013-04-18 21:13:00,
2013-04-18 16:14:00,68.9,23.7,25.90,NNW,344,8.1,8.7,18,0.00,,,0.00,VWS V14.00,2013-04-18 21:14:00,
2013-04-18 16:15:00,69.8,23.1,25.90,NNW,328,11.0,11.0,17,0.00,,,0.00,VWS V14.00,2013-04-18 21:15:00,
2013-04-18 16:18:00,68.4,23.2,25.90,NNE,31,5.8,12.3,18,0.00,,,0.00,VWS V14.00,2013-04-18 21:18:00,
2013-04-18 16:19:00,66.0,21.3,25.90,NNE,29,12.8,12.8,18,0.00,,,0.00,VWS V14.00,2013-04-18 21:19:00,
2013-04-18 16:20:00,65.5,20.9,25.90,NE,45,12.8,12.8,18,0.00,,,0.00,VWS V14.00,2013-04-18 21:20:00,
2013-04-18 16:24:00,69.3,24.0,25.90,NNE,20,6.7,12.8,18,0.00,,,0.00,VWS V14.00,2013-04-18 21:24:00,
2013-04-18 16:26:00,68.9,23.7,25.90,NNE,19,10.5,12.8,18,0.00,,,0.00,VWS V14.00,2013-04-18 21:26:00,
2013-04-18 16:27:00,67.3,22.4,25.90,NNE,30,10.5,12.8,18,0.00,,,0.00,VWS V14.00,2013-04-18 21:27:00,
2013-04-18 16:28:00,67.3,22.4,25.90,North,2,8.1,12.8,18,0.00,,,0.00,VWS V14.00,2013-04-18 21:28:00,
2013-04-18 16:29:00,66.9,22.1,25.90,NE,36,10.1,12.8,18,0.00,,,0.00,VWS V14.00,2013-04-18 21:29:00,
2013-04-18 16:31:00,66.0,21.3,25.90,NNE,19,8.3,12.8,18,0.00,,,0.00,VWS V14.00,2013-04-18 21:31:00,
2013-04-18 16:32:00,66.2,21.5,25.90,NNE,24,5.4,12.8,18,0.00,,,0.00,VWS V14.00,2013-04-18 21:32:00,
2013-04-18 16:33:00,67.8,22.8,25.90,NNW,335,11.9,12.8,18,0.00,,,0.00,VWS V14.00,2013-04-18 21:33:00,
2013-04-18 16:35:00,67.8,22.8,25.90,NNW,335,11.9,12.8,18,0.00,,,0.00,VWS V14.00,2013-04-18 21:35:00,
2013-04-18 16:36:00,67.8,22.8,25.90,NNW,344,3.1,12.8,18,0.00,,,0.00,VWS V14.00,2013-04-18 21:36:00,
2013-04-18 16:39:00,68.5,23.4,25.90,NNE,32,9.6,12.8,18,0.00,,,0.00,VWS V14.00,2013-04-18 21:39:00,
2013-04-18 16:40:00,67.6,22.6,25.90,North,5,11.0,12.8,18,0.00,,,0.00,VWS V14.00,2013-04-18 21:40:00,
2013-04-18 16:41:00,68.5,23.4,25.90,North,353,8.3,12.8,18,0.00,,,0.00,VWS V14.00,2013-04-18 21:41:00,
2013-04-18 16:44:00,69.3,24.0,25.90,NW,322,8.7,12.8,18,0.00,,,0.00,VWS V14.00,2013-04-18 21:44:00,
2013-04-18 16:45:00,69.3,24.0,25.90,NW,322,8.7,12.8,18,0.00,,,0.00,VWS V14.00,2013-04-18 21:45:00,
2013-04-18 16:46:00,70.2,23.4,25.90,North,353,9.6,12.8,17,0.00,,,0.00,VWS V14.00,2013-04-18 21:46:00,
2013-04-18 16:47:00,69.3,24.0,25.90,NNW,328,5.4,12.8,18,0.00,,,0.00,VWS V14.00,2013-04-18 21:47:00,
2013-04-18 16:49:00,70.9,23.9,25.90,North,3,3.6,12.8,17,0.00,,,0.00,VWS V14.00,2013-04-18 21:49:00,
2013-04-18 16:50:00,70.9,23.9,25.90,NNE,24,4.0,12.8,17,0.00,,,0.00,VWS V14.00,2013-04-18 21:50:00,
2013-04-18 16:51:00,70.7,23.8,25.90,NW,308,6.3,12.8,17,0.00,,,0.00,VWS V14.00,2013-04-18 21:51:00,
2013-04-18 16:52:00,69.4,24.1,25.90,NW,306,8.7,12.8,18,0.00,,,0.00,VWS V14.00,2013-04-18 21:52:00,
2013-04-18 16:55:00,69.3,24.0,25.90,NNE,21,7.6,15.0,18,0.00,,,0.00,VWS V14.00,2013-04-18 21:55:00,
2013-04-18 16:56:00,68.0,23.0,25.90,NNW,340,8.3,15.0,18,0.00,,,0.00,VWS V14.00,2013-04-18 21:56:00,
2013-04-18 16:59:00,67.5,22.5,25.90,North,0,3.6,15.0,18,0.00,,,0.00,VWS V14.00,2013-04-18 21:59:00,
2013-04-18 17:01:00,69.4,24.1,25.90,North,8,6.3,15.9,18,0.00,,,0.00,VWS V14.00,2013-04-18 22:01:00,
2013-04-18 17:02:00,68.4,23.2,25.90,NNW,336,8.3,15.9,18,0.00,,,0.00,VWS V14.00,2013-04-18 22:02:00,
2013-04-18 17:05:00,68.7,23.5,25.90,North,349,5.4,15.9,18,0.00,,,0.00,VWS V14.00,2013-04-18 22:05:00,
2013-04-18 17:06:00,70.0,23.2,25.90,NNW,327,8.1,15.9,17,0.00,,,0.00,VWS V14.00,2013-04-18 22:06:00,
2013-04-18 17:07:00,70.0,23.2,25.90,NNW,327,8.1,15.9,17,0.00,,,0.00,VWS V14.00,2013-04-18 22:07:00,
2013-04-18 17:08:00,69.4,24.1,25.90,North,353,7.6,15.9,18,0.00,,,0.00,VWS V14.00,2013-04-18 22:08:00,
2013-04-18 17:10:00,68.9,23.7,25.90,NW,312,11.9,15.9,18,0.00,,,0.00,VWS V14.00,2013-04-18 22:10:00,
2013-04-18 17:12:00,69.3,24.0,25.90,NNW,329,3.6,15.9,18,0.00,,,0.00,VWS V14.00,2013-04-18 22:12:00,
2013-04-18 17:13:00,68.2,23.1,25.90,North,357,7.6,15.9,18,0.00,,,0.00,VWS V14.00,2013-04-18 22:13:00,
2013-04-18 17:15:00,67.8,22.8,25.90,NNW,344,8.1,12.8,18,0.00,,,0.00,VWS V14.00,2013-04-18 22:15:00,
2013-04-18 17:16:00,67.6,22.6,25.90,NNW,340,10.1,12.8,18,0.00,,,0.00,VWS V14.00,2013-04-18 22:16:00,
2013-04-18 17:17:00,66.6,21.8,25.90,NNE,21,12.8,15.4,18,0.00,,,0.00,VWS V14.00,2013-04-18 22:17:00,
2013-04-18 17:18:00,66.0,21.3,25.90,NE,36,8.7,15.4,18,0.00,,,0.00,VWS V14.00,2013-04-18 22:18:00,
2013-04-18 17:19:00,66.0,21.3,25.93,North,357,4.5,15.4,18,0.00,,,0.00,VWS V14.00,2013-04-18 22:19:00,
2013-04-18 17:21:00,66.6,21.8,25.93,North,357,6.3,15.4,18,0.00,,,0.00,VWS V14.00,2013-04-18 22:21:00,
2013-04-18 17:22:00,66.6,21.8,25.93,NNE,24,5.8,15.4,18,0.00,,,0.00,VWS V14.00,2013-04-18 22:22:00,
2013-04-18 17:23:00,66.4,21.6,25.93,NNE,18,5.4,15.4,18,0.00,,,0.00,VWS V14.00,2013-04-18 22:23:00,
2013-04-18 17:25:00,66.4,21.6,25.93,NNW,337,6.3,15.4,18,0.00,,,0.00,VWS V14.00,2013-04-18 22:25:00,
2013-04-18 17:27:00,66.4,21.6,25.93,NNW,336,8.1,15.4,18,0.00,,,0.00,VWS V14.00,2013-04-18 22:27:00,
2013-04-18 17:28:00,67.1,22.2,25.93,North,1,8.1,15.4,18,0.00,,,0.00,VWS V14.00,2013-04-18 22:28:00,
2013-04-18 17:29:00,67.1,22.2,25.93,North,1,8.1,15.4,18,0.00,,,0.00,VWS V14.00,2013-04-18 22:29:00,
2013-04-18 17:30:00,67.3,22.4,25.93,North,353,11.0,11.0,18,0.00,,,0.00,VWS V14.00,2013-04-18 22:30:00,
2013-04-18 17:32:00,67.5,22.5,25.93,NW,321,5.8,11.4,18,0.00,,,0.00,VWS V14.00,2013-04-18 22:32:00,
2013-04-18 17:33:00,67.8,22.8,25.93,North,357,8.7,11.4,18,0.00,,,0.00,VWS V14.00,2013-04-18 22:33:00,
2013-04-18 17:34:00,67.6,22.6,25.93,NW,313,6.3,11.4,18,0.00,,,0.00,VWS V14.00,2013-04-18 22:34:00,
2013-04-18 17:35:00,67.1,22.2,25.93,NNW,331,8.3,11.4,18,0.00,,,0.00,VWS V14.00,2013-04-18 22:35:00,
2013-04-18 17:36:00,66.9,22.1,25.93,NNW,331,8.3,11.4,18,0.00,,,0.00,VWS V14.00,2013-04-18 22:36:00,
2013-04-18 17:38:00,66.4,21.6,25.93,NNE,20,8.1,12.3,18,0.00,,,0.00,VWS V14.00,2013-04-18 22:38:00,
2013-04-18 17:39:00,66.4,21.6,25.93,NE,34,5.8,12.3,18,0.00,,,0.00,VWS V14.00,2013-04-18 22:39:00,
2013-04-18 17:41:00,68.0,23.0,25.93,NNE,24,5.4,12.3,18,0.00,,,0.00,VWS V14.00,2013-04-18 22:41:00,
2013-04-18 17:44:00,66.9,22.1,25.93,NNE,28,8.1,15.0,18,0.00,,,0.00,VWS V14.00,2013-04-18 22:44:00,
2013-04-18 17:46:00,66.2,21.5,25.93,North,357,6.3,15.0,18,0.00,,,0.00,VWS V14.00,2013-04-18 22:46:00,
2013-04-18 17:47:00,66.0,21.3,25.93,NNW,342,6.7,15.0,18,0.00,,,0.00,VWS V14.00,2013-04-18 22:47:00,
2013-04-18 17:49:00,66.2,21.5,25.93,North,9,8.7,15.0,18,0.00,,,0.00,VWS V14.00,2013-04-18 22:49:00,
2013-04-18 17:50:00,66.6,21.8,25.93,NW,315,8.1,15.0,18,0.00,,,0.00,VWS V14.00,2013-04-18 22:50:00,
2013-04-18 17:52:00,65.8,21.2,25.93,North,5,4.0,15.0,18,0.00,,,0.00,VWS V14.00,2013-04-18 22:52:00,
2013-04-18 17:55:00,66.6,21.8,25.93,North,353,8.3,15.0,18,0.00,,,0.00,VWS V14.00,2013-04-18 22:55:00,
2013-04-18 17:57:00,66.4,21.6,25.93,North,357,8.7,15.0,18,0.00,,,0.00,VWS V14.00,2013-04-18 22:57:00,
2013-04-18 17:58:00,66.4,21.6,25.93,North,353,5.8,15.0,18,0.00,,,0.00,VWS V14.00,2013-04-18 22:58:00,
2013-04-18 18:00:00,66.4,21.6,25.93,North,353,5.8,15.0,18,0.00,,,0.00,VWS V14.00,2013-04-18 23:00:00,
2013-04-18 18:01:00,66.4,21.6,25.93,North,353,5.8,15.0,18,0.00,,,0.00,VWS V14.00,2013-04-18 23:01:00,
2013-04-18 18:02:00,68.4,23.2,25.93,NW,326,6.3,15.0,18,0.00,,,0.00,VWS V14.00,2013-04-18 23:02:00,
2013-04-18 18:03:00,68.0,23.0,25.93,NNW,348,8.1,15.0,18,0.00,,,0.00,VWS V14.00,2013-04-18 23:03:00,
2013-04-18 18:04:00,68.2,23.1,25.93,North,353,8.1,15.0,18,0.00,,,0.00,VWS V14.00,2013-04-18 23:04:00,
2013-04-18 18:06:00,68.5,23.4,25.93,NNW,328,8.7,15.0,18,0.00,,,0.00,VWS V14.00,2013-04-18 23:06:00,
2013-04-18 18:08:00,67.8,22.8,25.93,NNW,340,8.3,15.0,18,0.00,,,0.00,VWS V14.00,2013-04-18 23:08:00,
2013-04-18 18:10:00,67.1,22.2,25.93,ENE,62,4.0,15.0,18,0.00,,,0.00,VWS V14.00,2013-04-18 23:10:00,
2013-04-18 18:11:00,66.6,21.8,25.93,NNE,27,8.3,15.0,18,0.00,,,0.00,VWS V14.00,2013-04-18 23:11:00,
2013-04-18 18:14:00,67.5,22.5,25.93,North,0,6.7,8.7,18,0.00,,,0.00,VWS V14.00,2013-04-18 23:14:00,
2013-04-18 18:15:00,67.5,22.5,25.93,North,0,6.7,8.7,18,0.00,,,0.00,VWS V14.00,2013-04-18 23:15:00,
2013-04-18 18:16:00,68.2,23.1,25.93,North,357,5.8,10.5,18,0.00,,,0.00,VWS V14.00,2013-04-18 23:16:00,
2013-04-18 18:20:00,67.5,22.5,25.93,NNE,14,11.0,11.0,18,0.00,,,0.00,VWS V14.00,2013-04-18 23:20:00,
2013-04-18 18:21:00,66.6,21.8,25.93,North,357,14.5,17.0,18,0.00,,,0.00,VWS V14.00,2013-04-18 23:21:00,
2013-04-18 18:22:00,66.2,21.5,25.93,NNE,18,8.7,17.0,18,0.00,,,0.00,VWS V14.00,2013-04-18 23:22:00,
2013-04-18 18:25:00,65.1,20.6,25.93,NNW,339,8.7,17.0,18,0.00,,,0.00,VWS V14.00,2013-04-18 23:25:00,
2013-04-18 18:26:00,65.5,20.9,25.93,North,10,8.7,17.0,18,0.00,,,0.00,VWS V14.00,2013-04-18 23:26:00,
2013-04-18 18:27:00,64.4,20.0,25.93,NE,47,6.3,17.0,18,0.00,,,0.00,VWS V14.00,2013-04-18 23:27:00,
2013-04-18 18:28:00,64.8,20.3,25.93,North,9,13.2,17.0,18,0.00,,,0.00,VWS V14.00,2013-04-18 23:28:00,
2013-04-18 18:31:00,65.7,21.0,25.93,NNW,348,11.0,13.2,18,0.00,,,0.00,VWS V14.00,2013-04-18 23:31:00,
2013-04-18 18:32:00,65.7,21.0,25.93,NNW,348,7.6,13.2,18,0.00,,,0.00,VWS V14.00,2013-04-18 23:32:00,
2013-04-18 18:33:00,64.9,20.4,25.93,North,0,15.4,15.4,18,0.00,,,0.00,VWS V14.00,2013-04-18 23:33:00,
2013-04-18 18:36:00,64.8,20.3,25.96,North,353,6.7,15.4,18,0.00,,,0.00,VWS V14.00,2013-04-18 23:36:00,
2013-04-18 18:37:00,64.4,20.0,25.96,North,357,10.5,15.4,18,0.00,,,0.00,VWS V14.00,2013-04-18 23:37:00,
2013-04-18 18:38:00,64.4,20.0,25.96,North,1,8.3,15.4,18,0.00,,,0.00,VWS V14.00,2013-04-18 23:38:00,
2013-04-18 18:39:00,64.4,20.0,25.96,North,357,10.5,15.4,18,0.00,,,0.00,VWS V14.00,2013-04-18 23:39:00,
2013-04-18 18:41:00,63.9,20.8,25.96,NW,317,5.8,15.4,19,0.00,,,0.00,VWS V14.00,2013-04-18 23:41:00,
2013-04-18 18:42:00,63.7,20.7,25.96,NNE,17,9.6,15.4,19,0.00,,,0.00,VWS V14.00,2013-04-18 23:42:00,
2013-04-18 18:43:00,63.5,20.5,25.96,NNW,329,10.5,10.5,19,0.00,,,0.00,VWS V14.00,2013-04-18 23:43:00,
2013-04-18 18:44:00,63.3,20.4,25.96,NNW,341,11.0,11.0,19,0.00,,,0.00,VWS V14.00,2013-04-18 23:44:00,
2013-04-18 18:46:00,63.0,20.1,25.96,North,353,8.3,11.0,19,0.00,,,0.00,VWS V14.00,2013-04-18 23:46:00,
2013-04-18 18:47:00,62.6,19.8,25.96,NW,319,5.8,11.0,19,0.00,,,0.00,VWS V14.00,2013-04-18 23:47:00,
2013-04-18 18:48:00,62.4,19.6,25.96,NNE,19,7.6,11.9,19,0.00,,,0.00,VWS V14.00,2013-04-18 23:48:00,
2013-04-18 18:49:00,62.4,19.6,25.96,NNE,19,7.6,11.9,19,0.00,,,0.00,VWS V14.00,2013-04-18 23:49:00,
2013-04-18 18:50:00,62.2,19.5,25.93,North,353,11.4,12.8,19,0.00,,,0.00,VWS V14.00,2013-04-18 23:50:00,
2013-04-18 18:52:00,62.2,19.5,25.93,North,357,6.3,12.8,19,0.00,,,0.00,VWS V14.00,2013-04-18 23:52:00,
2013-04-18 18:54:00,62.2,19.5,25.93,NE,48,5.8,12.8,19,0.00,,,0.00,VWS V14.00,2013-04-18 23:54:00,
2013-04-18 18:56:00,62.2,19.5,25.93,NNW,339,7.6,12.8,19,0.00,,,0.00,VWS V14.00,2013-04-18 23:56:00,
2013-04-18 18:57:00,62.2,19.5,25.93,NNW,335,5.4,12.8,19,0.00,,,0.00,VWS V14.00,2013-04-18 23:57:00,
2013-04-18 18:59:00,62.2,19.5,25.93,NNW,335,5.4,12.8,19,0.00,,,0.00,VWS V14.00,2013-04-18 23:59:00,
2013-04-18 19:01:00,62.2,19.5,25.93,NNE,21,5.4,12.8,19,0.00,,,0.00,VWS V14.00,2013-04-19 00:01:00,
2013-04-18 19:03:00,62.2,19.5,25.93,NNW,343,8.1,12.8,19,0.00,,,0.00,VWS V14.00,2013-04-19 00:03:00,
2013-04-18 19:04:00,62.2,19.5,25.96,North,353,6.3,12.8,19,0.00,,,0.00,VWS V14.00,2013-04-19 00:04:00,
2013-04-18 19:05:00,62.2,19.5,25.96,NNE,25,5.8,12.8,19,0.00,,,0.00,VWS V14.00,2013-04-19 00:05:00,
2013-04-18 19:09:00,62.1,19.3,25.96,North,6,5.4,12.8,19,0.00,,,0.00,VWS V14.00,2013-04-19 00:09:00,
2013-04-18 19:10:00,62.1,19.3,25.96,North,357,4.0,12.8,19,0.00,,,0.00,VWS V14.00,2013-04-19 00:10:00,
2013-04-18 19:11:00,61.7,19.0,25.96,NNE,31,8.7,12.8,19,0.00,,,0.00,VWS V14.00,2013-04-19 00:11:00,
2013-04-18 19:14:00,61.7,19.0,25.96,NNW,342,9.2,11.0,19,0.00,,,0.00,VWS V14.00,2013-04-19 00:14:00,
2013-04-18 19:15:00,61.5,18.9,25.96,NE,44,7.6,11.0,19,0.00,,,0.00,VWS V14.00,2013-04-19 00:15:00,
2013-04-18 19:17:00,61.7,19.0,25.96,North,357,2.7,11.0,19,0.00,,,0.00,VWS V14.00,2013-04-19 00:17:00,
2013-04-18 19:20:00,61.5,18.9,25.96,NNE,28,10.5,11.0,19,0.00,,,0.00,VWS V14.00,2013-04-19 00:20:00,
2013-04-18 19:22:00,61.5,18.9,25.96,North,357,5.4,11.0,19,0.00,,,0.00,VWS V14.00,2013-04-19 00:22:00,
2013-04-18 19:25:00,61.5,18.9,25.96,NE,41,11.0,13.2,19,0.00,,,0.00,VWS V14.00,2013-04-19 00:25:00,
2013-04-18 19:26:00,61.5,18.9,25.96,North,2,5.4,13.2,19,0.00,,,0.00,VWS V14.00,2013-04-19 00:26:00,
2013-04-18 19:27:00,61.3,18.8,25.96,NE,38,9.2,13.2,19,0.00,,,0.00,VWS V14.00,2013-04-19 00:27:00,
2013-04-18 19:28:00,61.3,18.8,25.96,North,357,5.4,13.2,19,0.00,,,0.00,VWS V14.00,2013-04-19 00:28:00,
2013-04-18 19:31:00,61.3,18.8,25.96,North,353,7.6,8.3,19,0.00,,,0.00,VWS V14.00,2013-04-19 00:31:00,
2013-04-18 19:32:00,61.5,18.9,25.96,North,0,5.4,8.3,19,0.00,,,0.00,VWS V14.00,2013-04-19 00:32:00,
2013-04-18 19:33:00,61.3,18.8,25.96,NNE,29,5.8,10.5,19,0.00,,,0.00,VWS V14.00,2013-04-19 00:33:00,
2013-04-18 19:34:00,61.3,18.8,25.96,NNE,18,5.8,10.5,19,0.00,,,0.00,VWS V14.00,2013-04-19 00:34:00,
2013-04-18 19:37:00,61.2,18.6,25.96,NNE,31,5.4,10.5,19,0.00,,,0.00,VWS V14.00,2013-04-19 00:37:00,
2013-04-18 19:39:00,61.3,18.8,25.96,NE,35,2.7,10.5,19,0.00,,,0.00,VWS V14.00,2013-04-19 00:39:00,
2013-04-18 19:40:00,61.2,18.6,25.96,NNE,15,6.3,10.5,19,0.00,,,0.00,VWS V14.00,2013-04-19 00:40:00,
2013-04-18 19:42:00,61.2,18.6,25.96,ENE,66,5.4,10.5,19,0.00,,,0.00,VWS V14.00,2013-04-19 00:42:00,
2013-04-18 19:43:00,61.3,18.8,25.96,NNW,348,4.5,4.5,19,0.00,,,0.00,VWS V14.00,2013-04-19 00:43:00,
2013-04-18 19:45:00,61.0,18.5,25.96,NNE,28,5.8,7.6,19,0.00,,,0.00,VWS V14.00,2013-04-19 00:45:00,
2013-04-18 19:46:00,61.3,18.8,25.96,NNE,28,4.5,7.6,19,0.00,,,0.00,VWS V14.00,2013-04-19 00:46:00,
2013-04-18 19:49:00,61.0,18.5,25.96,NNE,28,5.8,7.6,19,0.00,,,0.00,VWS V14.00,2013-04-19 00:49:00,
2013-04-18 19:50:00,60.8,18.3,25.96,North,357,5.4,7.6,19,0.00,,,0.00,VWS V14.00,2013-04-19 00:50:00,
2013-04-18 19:53:00,60.6,19.4,25.96,North,357,4.0,7.6,20,0.00,,,0.00,VWS V14.00,2013-04-19 00:53:00,
2013-04-18 19:54:00,60.3,19.0,25.96,NNW,341,3.6,7.6,20,0.00,,,0.00,VWS V14.00,2013-04-19 00:54:00,
2013-04-18 19:55:00,60.1,18.9,25.96,North,357,5.8,7.6,20,0.00,,,0.00,VWS V14.00,2013-04-19 00:55:00,
2013-04-18 19:56:00,59.7,18.6,25.96,NW,315,7.6,7.6,20,0.00,,,0.00,VWS V14.00,2013-04-19 00:56:00,
2013-04-18 19:58:00,59.5,18.5,25.96,NNW,338,10.1,10.1,20,0.00,,,0.00,VWS V14.00,2013-04-19 00:58:00,
2013-04-18 19:59:00,59.5,17.3,25.96,North,0,6.3,13.6,19,0.00,,,0.00,VWS V14.00,2013-04-19 00:59:00,
2013-04-18 20:01:00,59.5,17.3,25.96,North,0,6.3,13.6,19,0.00,,,0.00,VWS V14.00,2013-04-19 01:01:00,
2013-04-18 20:02:00,59.5,18.5,25.96,North,11,5.8,13.6,20,0.00,,,0.00,VWS V14.00,2013-04-19 01:02:00,
2013-04-18 20:03:00,59.5,17.3,25.96,NNE,17,5.8,13.6,19,0.00,,,0.00,VWS V14.00,2013-04-19 01:03:00,
2013-04-18 20:06:00,59.5,17.3,25.99,NNE,12,8.1,13.6,19,0.00,,,0.00,VWS V14.00,2013-04-19 01:06:00,
2013-04-18 20:08:00,59.5,17.3,25.99,NNE,14,12.3,13.6,19,0.00,,,0.00,VWS V14.00,2013-04-19 01:08:00,
2013-04-18 20:09:00,59.5,18.5,25.99,NNW,340,6.3,13.6,20,0.00,,,0.00,VWS V14.00,2013-04-19 01:09:00,
2013-04-18 20:11:00,59.4,17.1,25.99,NE,35,10.5,13.6,19,0.00,,,0.00,VWS V14.00,2013-04-19 01:11:00,
2013-04-18 20:12:00,59.4,17.1,25.99,NNW,331,10.1,13.6,19,0.00,,,0.00,VWS V14.00,2013-04-19 01:12:00,
2013-04-18 20:15:00,59.5,17.3,25.99,NNW,338,7.6,12.3,19,0.00,,,0.00,VWS V14.00,2013-04-19 01:15:00,
2013-04-18 20:17:00,59.5,17.3,25.99,North,9,6.3,12.3,19,0.00,,,0.00,VWS V14.00,2013-04-19 01:17:00,
2013-04-18 20:18:00,59.4,17.1,25.99,NNE,26,7.2,12.3,19,0.00,,,0.00,VWS V14.00,2013-04-19 01:18:00,
2013-04-18 20:19:00,59.4,17.1,25.99,NW,326,12.3,12.3,19,0.00,,,0.00,VWS V14.00,2013-04-19 01:19:00,
2013-04-18 20:20:00,59.2,17.0,25.99,North,1,8.1,12.3,19,0.00,,,0.00,VWS V14.00,2013-04-19 01:20:00,
2013-04-18 20:21:00,59.2,17.0,25.99,NNW,330,11.0,12.3,19,0.00,,,0.00,VWS V14.00,2013-04-19 01:21:00,
2013-04-18 20:24:00,59.2,17.0,25.99,North,9,8.7,12.3,19,0.00,,,0.00,VWS V14.00,2013-04-19 01:24:00,
2013-04-18 20:25:00,59.0,16.8,25.99,North,1,4.0,12.3,19,0.00,,,0.00,VWS V14.00,2013-04-19 01:25:00,
2013-04-18 20:26:00,58.8,17.9,25.99,NE,37,8.1,12.3,20,0.00,,,0.00,VWS V14.00,2013-04-19 01:26:00,
2013-04-18 20:27:00,58.8,17.9,25.99,North,11,4.9,12.3,20,0.00,,,0.00,VWS V14.00,2013-04-19 01:27:00,
2013-04-18 20:29:00,58.5,17.6,25.99,NNE,17,7.2,9.6,20,0.00,,,0.00,VWS V14.00,2013-04-19 01:29:00,
2013-04-18 20:30:00,58.5,17.6,25.99,North,357,8.1,9.6,20,0.00,,,0.00,VWS V14.00,2013-04-19 01:30:00,
2013-04-18 20:31:00,58.5,17.6,25.99,North,357,8.1,9.6,20,0.00,,,0.00,VWS V14.00,2013-04-19 01:31:00,
2013-04-18 20:32:00,58.3,17.4,25.99,NNE,14,6.3,9.6,20,0.00,,,0.00,VWS V14.00,2013-04-19 01:32:00,
2013-04-18 20:34:00,58.3,17.4,25.99,North,5,5.4,9.6,20,0.00,,,0.00,VWS V14.00,2013-04-19 01:34:00,
2013-04-18 20:36:00,58.3,17.4,25.99,NNE,21,8.7,10.1,20,0.00,,,0.00,VWS V14.00,2013-04-19 01:36:00,
2013-04-18 20:37:00,58.3,17.4,25.99,NNW,343,8.7,10.1,20,0.00,,,0.00,VWS V14.00,2013-04-19 01:37:00,
2013-04-18 20:38:00,58.3,17.4,25.99,NNW,343,8.7,10.1,20,0.00,,,0.00,VWS V14.00,2013-04-19 01:38:00,
2013-04-18 20:40:00,58.3,17.4,25.99,NNE,33,4.0,11.0,20,0.00,,,0.00,VWS V14.00,2013-04-19 01:40:00,
2013-04-18 20:42:00,58.1,17.3,25.99,NNE,15,8.7,11.0,20,0.00,,,0.00,VWS V14.00,2013-04-19 01:42:00,
2013-04-18 20:43:00,58.1,17.3,25.99,North,7,5.8,11.0,20,0.00,,,0.00,VWS V14.00,2013-04-19 01:43:00,
2013-04-18 20:44:00,58.1,17.3,25.99,NW,311,4.9,5.8,20,0.00,,,0.00,VWS V14.00,2013-04-19 01:44:00,
2013-04-18 20:45:00,57.9,17.1,25.99,NNE,13,5.4,8.7,20,0.00,,,0.00,VWS V14.00,2013-04-19 01:45:00,
2013-04-18 20:48:00,57.9,17.1,25.99,NNE,29,6.3,11.0,20,0.00,,,0.00,VWS V14.00,2013-04-19 01:48:00,
2013-04-18 20:49:00,57.9,17.1,25.99,North,10,5.4,11.0,20,0.00,,,0.00,VWS V14.00,2013-04-19 01:49:00,
2013-04-18 20:51:00,57.9,17.1,25.99,North,3,5.4,11.0,20,0.00,,,0.00,VWS V14.00,2013-04-19 01:51:00,
2013-04-18 20:54:00,57.7,17.0,25.99,NNE,27,9.6,11.0,20,0.00,,,0.00,VWS V14.00,2013-04-19 01:54:00,
2013-04-18 20:55:00,57.7,17.0,25.99,NNE,32,7.2,11.0,20,0.00,,,0.00,VWS V14.00,2013-04-19 01:55:00,
2013-04-18 20:56:00,57.7,17.0,25.99,NNE,23,6.3,11.0,20,0.00,,,0.00,VWS V14.00,2013-04-19 01:56:00,
2013-04-18 20:57:00,57.7,17.0,25.99,NNE,23,6.3,11.0,20,0.00,,,0.00,VWS V14.00,2013-04-19 01:57:00,
2013-04-18 20:58:00,57.6,16.8,25.99,NNE,24,4.9,11.0,20,0.00,,,0.00,VWS V14.00,2013-04-19 01:58:00,
2013-04-18 21:01:00,57.0,16.4,25.99,North,357,8.7,11.0,20,0.00,,,0.00,VWS V14.00,2013-04-19 02:01:00,
2013-04-18 21:04:00,57.4,16.7,25.99,NNE,28,4.0,11.0,20,0.00,,,0.00,VWS V14.00,2013-04-19 02:04:00,
2013-04-18 21:05:00,57.4,16.7,25.99,North,3,8.1,11.0,20,0.00,,,0.00,VWS V14.00,2013-04-19 02:05:00,
2013-04-18 21:06:00,57.4,16.7,26.02,North,5,8.3,11.0,20,0.00,,,0.00,VWS V14.00,2013-04-19 02:06:00,
2013-04-18 21:07:00,57.2,16.5,26.02,North,357,5.4,11.0,20,0.00,,,0.00,VWS V14.00,2013-04-19 02:07:00,
2013-04-18 21:10:00,57.0,16.4,26.02,NNE,22,5.8,11.0,20,0.00,,,0.00,VWS V14.00,2013-04-19 02:10:00,
2013-04-18 21:11:00,57.0,16.4,26.02,NNE,30,5.8,11.0,20,0.00,,,0.00,VWS V14.00,2013-04-19 02:11:00,
2013-04-18 21:12:00,57.0,16.4,26.02,NNE,15,5.8,11.0,20,0.00,,,0.00,VWS V14.00,2013-04-19 02:12:00,
2013-04-18 21:16:00,56.7,16.1,26.02,North,9,4.0,8.3,20,0.00,,,0.00,VWS V14.00,2013-04-19 02:16:00,
2013-04-18 21:17:00,56.7,16.1,26.02,NNE,28,8.7,8.7,20,0.00,,,0.00,VWS V14.00,2013-04-19 02:17:00,
2013-04-18 21:18:00,56.7,16.1,26.02,NE,37,3.1,8.7,20,0.00,,,0.00,VWS V14.00,2013-04-19 02:18:00,
2013-04-18 21:19:00,56.5,15.9,26.02,NNE,32,5.8,8.7,20,0.00,,,0.00,VWS V14.00,2013-04-19 02:19:00,
2013-04-18 21:21:00,56.1,15.6,26.02,NNE,27,3.6,8.7,20,0.00,,,0.00,VWS V14.00,2013-04-19 02:21:00,
2013-04-18 21:22:00,56.1,15.6,26.02,NNE,33,4.9,8.7,20,0.00,,,0.00,VWS V14.00,2013-04-19 02:22:00,
2013-04-18 21:24:00,56.1,15.6,26.02,North,357,5.4,8.7,20,0.00,,,0.00,VWS V14.00,2013-04-19 02:24:00,
2013-04-18 21:25:00,56.3,15.8,26.02,NNE,19,6.3,8.7,20,0.00,,,0.00,VWS V14.00,2013-04-19 02:25:00,
2013-04-18 21:26:00,56.3,15.8,26.02,NNE,14,8.1,8.7,20,0.00,,,0.00,VWS V14.00,2013-04-19 02:26:00,
2013-04-18 21:27:00,56.5,15.9,26.02,North,0,11.0,11.0,20,0.00,,,0.00,VWS V14.00,2013-04-19 02:27:00,
2013-04-18 21:29:00,56.5,15.9,26.02,NNE,31,9.6,11.0,20,0.00,,,0.00,VWS V14.00,2013-04-19 02:29:00,
2013-04-18 21:30:00,56.5,15.9,26.02,North,3,8.7,11.0,20,0.00,,,0.00,VWS V14.00,2013-04-19 02:30:00,
2013-04-18 21:32:00,56.1,15.6,26.02,NNE,13,5.8,11.0,20,0.00,,,0.00,VWS V14.00,2013-04-19 02:32:00,
2013-04-18 21:33:00,56.3,15.8,26.02,NE,44,7.6,11.0,20,0.00,,,0.00,VWS V14.00,2013-04-19 02:33:00,
2013-04-18 21:34:00,56.3,15.8,26.02,NNE,15,5.4,11.0,20,0.00,,,0.00,VWS V14.00,2013-04-19 02:34:00,
2013-04-18 21:37:00,56.1,15.6,26.02,NNW,346,6.3,11.0,20,0.00,,,0.00,VWS V14.00,2013-04-19 02:37:00,
2013-04-18 21:39:00,56.1,15.6,26.02,NNE,22,5.4,11.0,20,0.00,,,0.00,VWS V14.00,2013-04-19 02:39:00,
2013-04-18 21:40:00,55.8,15.3,26.02,NNE,19,4.9,11.0,20,0.00,,,0.00,VWS V14.00,2013-04-19 02:40:00,
2013-04-18 21:41:00,55.8,15.3,26.02,North,9,4.9,11.0,20,0.00,,,0.00,VWS V14.00,2013-04-19 02:41:00,
2013-04-18 21:42:00,55.6,15.2,26.02,NNE,25,3.6,11.0,20,0.00,,,0.00,VWS V14.00,2013-04-19 02:42:00,
2013-04-18 21:43:00,55.4,15.0,26.02,NE,38,4.0,7.6,20,0.00,,,0.00,VWS V14.00,2013-04-19 02:43:00,
2013-04-18 21:45:00,55.4,15.0,26.02,North,3,8.3,8.3,20,0.00,,,0.00,VWS V14.00,2013-04-19 02:45:00,
2013-04-18 21:46:00,55.4,15.0,26.02,NNE,14,8.7,11.0,20,0.00,,,0.00,VWS V14.00,2013-04-19 02:46:00,
2013-04-18 21:47:00,55.6,15.2,26.02,NNE,18,6.7,11.0,20,0.00,,,0.00,VWS V14.00,2013-04-19 02:47:00,
2013-04-18 21:48:00,55.6,15.2,26.02,NNE,31,8.3,11.0,20,0.00,,,0.00,VWS V14.00,2013-04-19 02:48:00,
2013-04-18 21:49:00,55.8,15.3,26.02,North,5,6.3,11.0,20,0.00,,,0.00,VWS V14.00,2013-04-19 02:49:00,
2013-04-18 21:51:00,55.6,15.2,26.02,NNE,24,7.6,11.0,20,0.00,,,0.00,VWS V14.00,2013-04-19 02:51:00,
2013-04-18 21:53:00,55.6,15.2,26.02,North,8,5.8,11.0,20,0.00,,,0.00,VWS V14.00,2013-04-19 02:53:00,
2013-04-18 21:55:00,55.4,15.0,26.02,NNE,27,5.4,11.0,20,0.00,,,0.00,VWS V14.00,2013-04-19 02:55:00,
2013-04-18 21:56:00,55.2,16.0,26.02,North,5,6.7,11.0,21,0.00,,,0.00,VWS V14.00,2013-04-19 02:56:00,
2013-04-18 21:57:00,55.4,15.0,26.02,North,0,5.8,11.0,20,0.00,,,0.00,VWS V14.00,2013-04-19 02:57:00,
2013-04-18 21:58:00,55.4,15.0,26.02,NE,47,6.3,11.0,20,0.00,,,0.00,VWS V14.00,2013-04-19 02:58:00,
2013-04-18 22:00:00,55.4,15.0,26.02,NE,47,6.3,11.0,20,0.00,,,0.00,VWS V14.00,2013-04-19 03:00:00,
2013-04-18 22:02:00,55.2,16.0,26.02,NNE,13,4.0,11.0,21,0.00,,,0.00,VWS V14.00,2013-04-19 03:02:00,
2013-04-18 22:04:00,55.4,15.0,25.99,NE,41,8.3,11.0,20,0.00,,,0.00,VWS V14.00,2013-04-19 03:04:00,
2013-04-18 22:05:00,55.2,16.0,25.99,NNE,18,4.9,11.0,21,0.00,,,0.00,VWS V14.00,2013-04-19 03:05:00,
2013-04-18 22:07:00,55.0,15.8,25.99,NNW,335,5.4,11.0,21,0.00,,,0.00,VWS V14.00,2013-04-19 03:07:00,
2013-04-18 22:08:00,55.0,15.8,25.99,North,11,4.9,11.0,21,0.00,,,0.00,VWS V14.00,2013-04-19 03:08:00,
2013-04-18 22:10:00,54.7,15.5,25.99,NNE,33,7.6,11.0,21,0.00,,,0.00,VWS V14.00,2013-04-19 03:10:00,
2013-04-18 22:11:00,54.7,15.5,25.99,North,7,5.8,11.0,21,0.00,,,0.00,VWS V14.00,2013-04-19 03:11:00,
2013-04-18 22:13:00,55.0,15.8,25.99,NNE,32,8.7,11.0,21,0.00,,,0.00,VWS V14.00,2013-04-19 03:13:00,
2013-04-18 22:14:00,55.0,15.8,25.99,NE,44,7.6,8.7,21,0.00,,,0.00,VWS V14.00,2013-04-19 03:14:00,
2013-04-18 22:15:00,54.9,15.7,25.99,NE,40,8.1,8.7,21,0.00,,,0.00,VWS V14.00,2013-04-19 03:15:00,
2013-04-18 22:17:00,54.7,15.5,25.99,NNE,20,3.6,8.7,21,0.00,,,0.00,VWS V14.00,2013-04-19 03:17:00,
2013-04-18 22:19:00,54.7,15.5,25.99,NE,34,5.8,8.7,21,0.00,,,0.00,VWS V14.00,2013-04-19 03:19:00,
2013-04-18 22:20:00,54.7,15.5,25.99,NE,34,5.8,8.7,21,0.00,,,0.00,VWS V14.00,2013-04-19 03:20:00,
2013-04-18 22:21:00,54.7,15.5,25.99,NE,34,5.8,8.7,21,0.00,,,0.00,VWS V14.00,2013-04-19 03:21:00,
2013-04-18 22:25:00,54.1,15.1,25.99,NNE,20,8.1,8.7,21,0.00,,,0.00,VWS V14.00,2013-04-19 03:25:00,
2013-04-18 22:26:00,54.1,15.1,25.99,North,9,5.8,8.7,21,0.00,,,0.00,VWS V14.00,2013-04-19 03:26:00,
2013-04-18 22:27:00,54.1,15.1,25.99,NNE,23,5.8,8.7,21,0.00,,,0.00,VWS V14.00,2013-04-19 03:27:00,
2013-04-18 22:31:00,54.3,15.2,25.99,NNE,24,6.3,10.1,21,0.00,,,0.00,VWS V14.00,2013-04-19 03:31:00,
2013-04-18 22:32:00,54.5,15.4,25.99,North,11,8.1,10.1,21,0.00,,,0.00,VWS V14.00,2013-04-19 03:32:00,
2013-04-18 22:33:00,54.3,15.2,25.99,NE,36,5.4,10.1,21,0.00,,,0.00,VWS V14.00,2013-04-19 03:33:00,
2013-04-18 22:34:00,54.3,15.2,25.99,North,3,4.9,10.1,21,0.00,,,0.00,VWS V14.00,2013-04-19 03:34:00,
2013-04-18 22:37:00,54.1,15.1,25.99,NE,34,6.3,10.1,21,0.00,,,0.00,VWS V14.00,2013-04-19 03:37:00,
2013-04-18 22:38:00,54.1,15.1,25.99,NNE,15,5.8,10.1,21,0.00,,,0.00,VWS V14.00,2013-04-19 03:38:00,
2013-04-18 22:39:00,53.8,14.8,25.99,NNE,27,5.4,10.1,21,0.00,,,0.00,VWS V14.00,2013-04-19 03:39:00,
2013-04-18 22:40:00,53.8,14.8,25.99,NE,44,4.0,10.1,21,0.00,,,0.00,VWS V14.00,2013-04-19 03:40:00,
2013-04-18 22:43:00,53.6,14.6,25.99,NNE,15,3.6,4.0,21,0.00,,,0.00,VWS V14.00,2013-04-19 03:43:00,
2013-04-18 22:45:00,53.4,14.5,25.99,NE,34,8.1,9.6,21,0.00,,,0.00,VWS V14.00,2013-04-19 03:45:00,
2013-04-18 22:46:00,53.6,14.6,25.99,North,11,3.6,9.6,21,0.00,,,0.00,VWS V14.00,2013-04-19 03:46:00,
2013-04-18 22:48:00,53.8,14.8,25.99,North,10,6.3,9.6,21,0.00,,,0.00,VWS V14.00,2013-04-19 03:48:00,
2013-04-18 22:49:00,53.6,14.6,25.99,NE,43,5.8,9.6,21,0.00,,,0.00,VWS V14.00,2013-04-19 03:49:00,
2013-04-18 22:50:00,53.6,14.6,25.99,NNE,17,5.4,9.6,21,0.00,,,0.00,VWS V14.00,2013-04-19 03:50:00,
2013-04-18 22:52:00,53.6,14.6,25.99,NNE,30,5.8,9.6,21,0.00,,,0.00,VWS V14.00,2013-04-19 03:52:00,
2013-04-18 22:53:00,53.6,14.6,25.99,NNE,27,7.6,10.5,21,0.00,,,0.00,VWS V14.00,2013-04-19 03:53:00,
2013-04-18 22:54:00,53.8,14.8,25.99,NNE,19,5.4,10.5,21,0.00,,,0.00,VWS V14.00,2013-04-19 03:54:00,
2013-04-18 22:55:00,53.8,14.8,25.99,NW,324,7.6,10.5,21,0.00,,,0.00,VWS V14.00,2013-04-19 03:55:00,
2013-04-18 22:57:00,54.0,14.9,25.99,NE,34,10.1,11.0,21,0.00,,,0.00,VWS V14.00,2013-04-19 03:57:00,
2013-04-18 23:00:00,53.8,14.8,25.99,NE,39,4.0,11.0,21,0.00,,,0.00,VWS V14.00,2013-04-19 04:00:00,
2013-04-18 23:01:00,53.8,14.8,25.99,NE,39,4.0,11.0,21,0.00,,,0.00,VWS V14.00,2013-04-19 04:01:00,
2013-04-18 23:02:00,53.6,14.6,25.99,North,2,3.1,11.0,21,0.00,,,0.00,VWS V14.00,2013-04-19 04:02:00,
2013-04-18 23:04:00,53.6,14.6,25.99,NNE,25,8.1,11.0,21,0.00,,,0.00,VWS V14.00,2013-04-19 04:04:00,
2013-04-18 23:05:00,53.4,14.5,25.99,NE,39,5.8,11.0,21,0.00,,,0.00,VWS V14.00,2013-04-19 04:05:00,
2013-04-18 23:06:00,53.4,14.5,25.99,NE,39,5.8,11.0,21,0.00,,,0.00,VWS V14.00,2013-04-19 04:06:00,
2013-04-18 23:08:00,53.1,14.2,25.99,NNE,16,5.8,11.0,21,0.00,,,0.00,VWS V14.00,2013-04-19 04:08:00,
2013-04-18 23:10:00,53.4,14.5,25.99,NNE,16,6.7,11.0,21,0.00,,,0.00,VWS V14.00,2013-04-19 04:10:00,
2013-04-18 23:11:00,53.4,14.5,25.99,NE,34,8.7,11.0,21,0.00,,,0.00,VWS V14.00,2013-04-19 04:11:00,
2013-04-18 23:12:00,53.4,14.5,25.99,North,6,8.3,11.0,21,0.00,,,0.00,VWS V14.00,2013-04-19 04:12:00,
2013-04-18 23:13:00,53.2,14.3,25.99,NNE,24,6.3,6.3,21,0.00,,,0.00,VWS V14.00,2013-04-19 04:13:00,
2013-04-18 23:16:00,53.1,14.2,25.99,North,0,6.3,6.3,21,0.00,,,0.00,VWS V14.00,2013-04-19 04:16:00,
2013-04-18 23:17:00,53.1,14.2,25.99,North,0,6.3,6.3,21,0.00,,,0.00,VWS V14.00,2013-04-19 04:17:00,
2013-04-18 23:18:00,53.1,14.2,25.99,NE,38,6.3,8.7,21,0.00,,,0.00,VWS V14.00,2013-04-19 04:18:00,
2013-04-18 23:22:00,53.1,14.2,25.99,NE,45,6.3,10.5,21,0.00,,,0.00,VWS V14.00,2013-04-19 04:22:00,
2013-04-18 23:24:00,53.1,14.2,25.99,North,7,5.4,11.0,21,0.00,,,0.00,VWS V14.00,2013-04-19 04:24:00,
2013-04-18 23:26:00,52.9,14.0,25.99,North,1,5.8,11.0,21,0.00,,,0.00,VWS V14.00,2013-04-19 04:26:00,
2013-04-18 23:27:00,52.9,14.0,25.99,North,357,6.3,11.0,21,0.00,,,0.00,VWS V14.00,2013-04-19 04:27:00,
2013-04-18 23:28:00,52.5,13.7,25.99,North,5,8.1,11.0,21,0.00,,,0.00,VWS V14.00,2013-04-19 04:28:00,
2013-04-18 23:29:00,52.5,13.7,25.99,NE,49,5.4,8.1,21,0.00,,,0.00,VWS V14.00,2013-04-19 04:29:00,
2013-04-18 23:32:00,52.7,13.9,25.99,NNE,22,7.6,10.1,21,0.00,,,0.00,VWS V14.00,2013-04-19 04:32:00,
2013-04-18 23:33:00,52.7,13.9,25.99,NNE,27,5.8,11.0,21,0.00,,,0.00,VWS V14.00,2013-04-19 04:33:00,
2013-04-18 23:35:00,52.7,13.9,25.99,NNE,14,7.2,11.0,21,0.00,,,0.00,VWS V14.00,2013-04-19 04:35:00,
2013-04-18 23:37:00,52.9,14.0,25.99,NE,52,6.3,11.0,21,0.00,,,0.00,VWS V14.00,2013-04-19 04:37:00,
2013-04-18 23:38:00,52.9,14.0,25.99,NE,36,5.4,11.0,21,0.00,,,0.00,VWS V14.00,2013-04-19 04:38:00,
2013-04-18 23:39:00,52.9,14.0,25.99,NE,36,5.4,11.0,21,0.00,,,0.00,VWS V14.00,2013-04-19 04:39:00,
2013-04-18 23:40:00,52.5,13.7,25.99,North,5,4.9,11.0,21,0.00,,,0.00,VWS V14.00,2013-04-19 04:40:00,
2013-04-18 23:41:00,52.3,13.6,25.99,NNE,28,5.4,11.0,21,0.00,,,0.00,VWS V14.00,2013-04-19 04:41:00,
2013-04-18 23:42:00,52.3,13.6,25.99,North,2,8.7,11.0,21,0.00,,,0.00,VWS V14.00,2013-04-19 04:42:00,
2013-04-18 23:44:00,52.3,13.6,25.99,NNE,27,8.7,8.7,21,0.00,,,0.00,VWS V14.00,2013-04-19 04:44:00,
2013-04-18 23:45:00,52.2,13.4,25.99,North,0,4.0,8.7,21,0.00,,,0.00,VWS V14.00,2013-04-19 04:45:00,
2013-04-18 23:47:00,52.3,13.6,25.99,NNE,23,7.6,8.7,21,0.00,,,0.00,VWS V14.00,2013-04-19 04:47:00,
2013-04-18 23:48:00,52.0,13.3,25.99,North,357,3.1,8.7,21,0.00,,,0.00,VWS V14.00,2013-04-19 04:48:00,
2013-04-18 23:49:00,51.8,13.1,25.99,NE,35,8.7,8.7,21,0.00,,,0.00,VWS V14.00,2013-04-19 04:49:00,
2013-04-18 23:51:00,51.8,13.1,25.99,NE,35,12.8,12.8,21,0.00,,,0.00,VWS V14.00,2013-04-19 04:51:00,
2013-04-18 23:52:00,51.8,13.1,25.99,NE,35,12.8,12.8,21,0.00,,,0.00,VWS V14.00,2013-04-19 04:52:00,
2013-04-18 23:53:00,52.0,13.3,25.99,North,4,5.8,12.8,21,0.00,,,0.00,VWS V14.00,2013-04-19 04:53:00,
2013-04-18 23:56:00,52.0,13.3,25.99,NNE,31,6.3,12.8,21,0.00,,,0.00,VWS V14.00,2013-04-19 04:56:00,
2013-04-18 23:57:00,52.0,13.3,25.99,NNE,31,6.3,12.8,21,0.00,,,0.00,VWS V14.00,2013-04-19 04:57:00,
2013-04-18 23:59:00,51.8,13.1,25.99,NNE,21,5.4,12.8,21,0.00,,,0.00,VWS V14.00,2013-04-19 04:59:00,